Observation data for Aiken on 10/18/2019      Previous  Date       Current Mesonet Observations  Soil Data  Daily Summary Page  Observations in Plain Language
KAI1 180500Z 17010KT 15/06 A2987 RMK A01 T01520056  RH  053%=      5-min Rain = 0
KAI1 180501Z 17012KT 15/06 A2987 RMK A01 T01510055  RH  053%=      5-min Rain = 0
KAI1 180502Z 17012KT 15/06 A2987 RMK A01 T01510055  RH  053%=      5-min Rain = 0
KAI1 180503Z 17011KT 15/06 A2986 RMK A01 T01510055  RH  053%=      5-min Rain = 0
KAI1 180504Z 16010KT 15/06 A2986 RMK A01 T01510055  RH  053%=      5-min Rain = 0
KAI1 180505Z 17012KT 15/06 A2986 RMK A01 T01500055  RH  053%=      5-min Rain = 0
KAI1 180506Z 17012KT 15/06 A2986 RMK A01 T01490055  RH  053%=      5-min Rain = 0
KAI1 180507Z 16012KT 15/06 A2986 RMK A01 T01490055  RH  053%=      5-min Rain = 0
KAI1 180508Z 16010KT 15/06 A2986 RMK A01 T01500055  RH  053%=      5-min Rain = 0
KAI1 180509Z 17011KT 15/06 A2986 RMK A01 T01500055  RH  053%=      5-min Rain = 0
KAI1 180510Z 17011KT 15/06 A2986 RMK A01 T01490055  RH  053%=      5-min Rain = 0
KAI1 180511Z 17011KT 15/06 A2986 RMK A01 T01490055  RH  053%=      5-min Rain = 0
KAI1 180512Z 17012KT 15/05 A2986 RMK A01 T01480054  RH  053%=      5-min Rain = 0
KAI1 180513Z 17012KT 15/05 A2986 RMK A01 T01480054  RH  053%=      5-min Rain = 0
KAI1 180514Z 17012KT 15/05 A2986 RMK A01 T01480054  RH  053%=      5-min Rain = 0
KAI1 180515Z 17012KT 15/05 A2986 RMK A01 T01480053  RH  053%=      5-min Rain = 0
KAI1 180516Z 17014KT 15/05 A2986 RMK A01 T01490053  RH  053%=      5-min Rain = 0
KAI1 180517Z 17013KT 15/05 A2986 RMK A01 T01490053  RH  052%=      5-min Rain = 0
KAI1 180518Z 17013KT 15/05 A2986 RMK A01 T01500053  RH  052%=      5-min Rain = 0
KAI1 180519Z 17014KT 15/05 A2986 RMK A01 T01500053  RH  052%=      5-min Rain = 0
KAI1 180520Z 17013KT 15/05 A2986 RMK A01 T01500052  RH  052%=      5-min Rain = 0
KAI1 180521Z 17013KT 15/05 A2986 RMK A01 T01500052  RH  052%=      5-min Rain = 0
KAI1 180522Z 18011KT 15/05 A2986 RMK A01 T01500052  RH  052%=      5-min Rain = 0
KAI1 180523Z 17014KT 15/05 A2986 RMK A01 T01500052  RH  052%=      5-min Rain = 0
KAI1 180524Z 17015KT 15/05 A2986 RMK A01 T01510051  RH  051%=      5-min Rain = 0
KAI1 180525Z 17014KT 15/05 A2986 RMK A01 T01510051  RH  051%=      5-min Rain = 0
KAI1 180526Z 17011KT 15/05 A2986 RMK A01 T01510050  RH  051%=      5-min Rain = 0
KAI1 180527Z 17012KT 15/05 A2986 RMK A01 T01520051  RH  051%=      5-min Rain = 0
KAI1 180528Z 17014KT 15/05 A2986 RMK A01 T01510051  RH  051%=      5-min Rain = 0
KAI1 180529Z 17012KT 15/05 A2986 RMK A01 T01510050  RH  051%=      5-min Rain = 0
KAI1 180530Z 17014KT 15/05 A2986 RMK A01 T01510050  RH  051%=      5-min Rain = 0
KAI1 180531Z 17013KT 15/05 A2986 RMK A01 T01510049  RH  051%=      5-min Rain = 0
KAI1 180532Z 17013KT 15/05 A2986 RMK A01 T01510049  RH  050%=      5-min Rain = 0
KAI1 180533Z 17015KT 15/05 A2986 RMK A01 T01510049  RH  050%=      5-min Rain = 0
KAI1 180534Z 17013KT 15/05 A2986 RMK A01 T01520049  RH  050%=      5-min Rain = 0
KAI1 180535Z 17015KT 15/05 A2986 RMK A01 T01520048  RH  050%=      5-min Rain = 0
KAI1 180536Z 17013KT 15/05 A2986 RMK A01 T01520048  RH  050%=      5-min Rain = 0
KAI1 180537Z 17013KT 15/05 A2986 RMK A01 T01520048  RH  050%=      5-min Rain = 0
KAI1 180538Z 17014KT 15/05 A2986 RMK A01 T01520048  RH  050%=      5-min Rain = 0
KAI1 180539Z 17014KT 15/05 A2986 RMK A01 T01510048  RH  050%=      5-min Rain = 0
KAI1 180540Z 17014KT 15/05 A2986 RMK A01 T01510047  RH  050%=      5-min Rain = 0
KAI1 180541Z 17013KT 15/05 A2986 RMK A01 T01510047  RH  050%=      5-min Rain = 0
KAI1 180542Z 18014KT 15/05 A2986 RMK A01 T01510047  RH  050%=      5-min Rain = 0
KAI1 180543Z 17014KT 15/05 A2986 RMK A01 T01510047  RH  050%=      5-min Rain = 0
KAI1 180544Z 17013G18KT 15/05 A2986 RMK A01 T01510047  RH  050%=      5-min Rain = 0
KAI1 180545Z 17015KT 15/05 A2986 RMK A01 T01500046  RH  050%=      5-min Rain = 0
KAI1 180546Z 18015KT 15/05 A2986 RMK A01 T01510045  RH  049%=      5-min Rain = 0
KAI1 180547Z 17015KT 15/05 A2986 RMK A01 T01510046  RH  049%=      5-min Rain = 0
KAI1 180548Z 17015KT 15/05 A2986 RMK A01 T01510045  RH  049%=      5-min Rain = 0
KAI1 180549Z 17016KT 15/04 A2986 RMK A01 T01500044  RH  049%=      5-min Rain = 0
KAI1 180550Z 17015KT 15/04 A2986 RMK A01 T01510044  RH  049%=      5-min Rain = 0
KAI1 180551Z 17014G19KT 15/04 A2986 RMK A01 T01510044  RH  049%=      5-min Rain = 0
KAI1 180552Z 17014KT 15/04 A2986 RMK A01 T01510044  RH  049%=      5-min Rain = 0
KAI1 180553Z 17014KT 15/04 A2986 RMK A01 T01510044  RH  049%=      5-min Rain = 0
KAI1 180554Z 18014G20KT 15/04 A2986 RMK A01 T01510043  RH  048%=      5-min Rain = 0
KAI1 180555Z 17014KT 15/04 A2986 RMK A01 T01510042  RH  048%=      5-min Rain = 0
KAI1 180556Z 17016KT 15/04 A2986 RMK A01 T01510042  RH  048%=      5-min Rain = 0
KAI1 180557Z 17015KT 15/04 A2986 RMK A01 T01510042  RH  048%=      5-min Rain = 0
KAI1 180558Z 17014KT 15/04 A2986 RMK A01 T01510042  RH  048%=      5-min Rain = 0
KAI1 180559Z 18012KT 15/04 A2986 RMK A01 T01510042  RH  048%=      5-min Rain = 0
KAI1 180600Z 17013G18KT 15/04 A2986 RMK A01 T01500042  RH  048%=      5-min Rain = 0
KAI1 180601Z 17014KT 15/04 A2986 RMK A01 T01490041  RH  048%=      5-min Rain = 0
KAI1 180602Z 17014KT 15/04 A2986 RMK A01 T01490040  RH  048%=      5-min Rain = 0
KAI1 180603Z 17016KT 15/04 A2986 RMK A01 T01490040  RH  048%=      5-min Rain = 0
KAI1 180604Z 17015KT 15/04 A2986 RMK A01 T01490039  RH  048%=      5-min Rain = 0
KAI1 180605Z 17014KT 15/04 A2986 RMK A01 T01490040  RH  048%=      5-min Rain = 0
KAI1 180606Z 17015KT 15/04 A2986 RMK A01 T01490039  RH  048%=      5-min Rain = 0
KAI1 180607Z 17014KT 15/04 A2986 RMK A01 T01490039  RH  048%=      5-min Rain = 0
KAI1 180608Z 18014KT 15/04 A2986 RMK A01 T01490039  RH  048%=      5-min Rain = 0
KAI1 180609Z 17014G19KT 15/04 A2986 RMK A01 T01490039  RH  048%=      5-min Rain = 0
KAI1 180610Z 17013KT 15/04 A2986 RMK A01 T01490039  RH  048%=      5-min Rain = 0
KAI1 180611Z 17013KT 15/04 A2986 RMK A01 T01490039  RH  048%=      5-min Rain = 0
KAI1 180612Z 18013KT 15/04 A2986 RMK A01 T01480038  RH  048%=      5-min Rain = 0
KAI1 180613Z 18013KT 15/04 A2986 RMK A01 T01470038  RH  048%=      5-min Rain = 0
KAI1 180614Z 17013KT 15/04 A2986 RMK A01 T01470039  RH  048%=      5-min Rain = 0
KAI1 180615Z 17014KT 15/04 A2986 RMK A01 T01470038  RH  048%=      5-min Rain = 0
KAI1 180616Z 17013KT 15/04 A2986 RMK A01 T01470038  RH  048%=      5-min Rain = 0
KAI1 180617Z 17013KT 15/04 A2986 RMK A01 T01470038  RH  048%=      5-min Rain = 0
KAI1 180618Z 17015KT 15/04 A2986 RMK A01 T01460038  RH  048%=      5-min Rain = 0
KAI1 180619Z 17012KT 15/04 A2986 RMK A01 T01460037  RH  048%=      5-min Rain = 0
KAI1 180620Z 17013KT 15/04 A2986 RMK A01 T01460038  RH  048%=      5-min Rain = 0
KAI1 180621Z 17013KT 15/04 A2986 RMK A01 T01460038  RH  048%=      5-min Rain = 0
KAI1 180622Z 17012KT 15/04 A2986 RMK A01 T01460038  RH  048%=      5-min Rain = 0
KAI1 180623Z 18014KT 15/04 A2986 RMK A01 T01450038  RH  048%=      5-min Rain = 0
KAI1 180624Z 17013KT 15/04 A2986 RMK A01 T01450038  RH  048%=      5-min Rain = 0
KAI1 180625Z 18012KT 15/04 A2986 RMK A01 T01450038  RH  049%=      5-min Rain = 0
KAI1 180626Z 18014KT 15/04 A2986 RMK A01 T01450038  RH  049%=      5-min Rain = 0
KAI1 180627Z 17011KT 14/04 A2986 RMK A01 T01440037  RH  049%=      5-min Rain = 0
KAI1 180628Z 17013KT 14/04 A2986 RMK A01 T01440038  RH  049%=      5-min Rain = 0
KAI1 180629Z 18013KT 14/04 A2986 RMK A01 T01440038  RH  049%=      5-min Rain = 0
KAI1 180630Z 18013KT 14/04 A2986 RMK A01 T01440038  RH  049%=      5-min Rain = 0
KAI1 180631Z 18013KT 14/04 A2986 RMK A01 T01440038  RH  049%=      5-min Rain = 0
KAI1 180632Z 18013KT 14/04 A2986 RMK A01 T01440038  RH  049%=      5-min Rain = 0
KAI1 180633Z 18013KT 14/04 A2986 RMK A01 T01440038  RH  049%=      5-min Rain = 0
KAI1 180634Z 18012KT 14/04 A2986 RMK A01 T01440038  RH  049%=      5-min Rain = 0
KAI1 180635Z 18014KT 14/04 A2986 RMK A01 T01440038  RH  049%=      5-min Rain = 0
KAI1 180636Z 17012KT 14/04 A2986 RMK A01 T01440038  RH  049%=      5-min Rain = 0
KAI1 180637Z 17013KT 14/04 A2986 RMK A01 T01430038  RH  049%=      5-min Rain = 0
KAI1 180638Z 17014KT 14/04 A2986 RMK A01 T01430038  RH  049%=      5-min Rain = 0
KAI1 180639Z 18012KT 14/04 A2986 RMK A01 T01430038  RH  049%=      5-min Rain = 0
KAI1 180640Z 18012KT 14/04 A2986 RMK A01 T01430038  RH  049%=      5-min Rain = 0
KAI1 180641Z 17011KT 14/04 A2986 RMK A01 T01430038  RH  049%=      5-min Rain = 0
KAI1 180642Z 17012KT 14/04 A2986 RMK A01 T01420038  RH  050%=      5-min Rain = 0
KAI1 180643Z 17011KT 14/04 A2986 RMK A01 T01420038  RH  050%=      5-min Rain = 0
KAI1 180644Z 17012KT 14/04 A2986 RMK A01 T01420038  RH  050%=      5-min Rain = 0
KAI1 180645Z 17012KT 14/04 A2986 RMK A01 T01410038  RH  050%=      5-min Rain = 0
KAI1 180646Z 17013KT 14/04 A2985 RMK A01 T01410038  RH  050%=      5-min Rain = 0
KAI1 180647Z 18014KT 14/04 A2985 RMK A01 T01410038  RH  050%=      5-min Rain = 0
KAI1 180648Z 17013KT 14/04 A2985 RMK A01 T01420038  RH  050%=      5-min Rain = 0
KAI1 180649Z 17012KT 14/04 A2985 RMK A01 T01420038  RH  050%=      5-min Rain = 0
KAI1 180650Z 17012KT 14/04 A2985 RMK A01 T01420038  RH  050%=      5-min Rain = 0
KAI1 180651Z 17012KT 14/04 A2985 RMK A01 T01420038  RH  050%=      5-min Rain = 0
KAI1 180652Z 17011KT 14/04 A2985 RMK A01 T01420038  RH  050%=      5-min Rain = 0
KAI1 180653Z 18013KT 14/04 A2985 RMK A01 T01410038  RH  050%=      5-min Rain = 0
KAI1 180654Z 17012KT 14/04 A2985 RMK A01 T01410038  RH  050%=      5-min Rain = 0
KAI1 180655Z 17011G16KT 14/04 A2985 RMK A01 T01410038  RH  050%=      5-min Rain = 0
KAI1 180656Z 17011KT 14/04 A2985 RMK A01 T01410039  RH  050%=      5-min Rain = 0
KAI1 180657Z 17013KT 14/04 A2985 RMK A01 T01400039  RH  050%=      5-min Rain = 0
KAI1 180658Z 18012KT 14/04 A2985 RMK A01 T01400038  RH  050%=      5-min Rain = 0
KAI1 180659Z 17013KT 14/04 A2985 RMK A01 T01410038  RH  050%=      5-min Rain = 0
KAI1 180700Z 18012KT 14/04 A2985 RMK A01 T01410038  RH  050%=      5-min Rain = 0
KAI1 180701Z 17011KT 14/04 A2985 RMK A01 T01410038  RH  050%=      5-min Rain = 0
KAI1 180702Z 17012KT 14/04 A2985 RMK A01 T01400038  RH  050%=      5-min Rain = 0
KAI1 180703Z 17011KT 14/04 A2985 RMK A01 T01400038  RH  050%=      5-min Rain = 0
KAI1 180704Z 17012KT 14/04 A2985 RMK A01 T01390038  RH  050%=      5-min Rain = 0
KAI1 180705Z 17012KT 14/04 A2985 RMK A01 T01390038  RH  050%=      5-min Rain = 0
KAI1 180706Z 18012KT 14/04 A2985 RMK A01 T01390039  RH  051%=      5-min Rain = 0
KAI1 180707Z 18012KT 14/04 A2985 RMK A01 T01390038  RH  051%=      5-min Rain = 0
KAI1 180708Z 17012KT 14/04 A2985 RMK A01 T01390038  RH  051%=      5-min Rain = 0
KAI1 180709Z 17012KT 14/04 A2985 RMK A01 T01390039  RH  051%=      5-min Rain = 0
KAI1 180710Z 18012KT 14/04 A2985 RMK A01 T01380038  RH  051%=      5-min Rain = 0
KAI1 180711Z 17013KT 14/04 A2985 RMK A01 T01380039  RH  051%=      5-min Rain = 0
KAI1 180712Z 18010KT 14/04 A2985 RMK A01 T01380039  RH  051%=      5-min Rain = 0
KAI1 180713Z 18012KT 14/04 A2985 RMK A01 T01380039  RH  051%=      5-min Rain = 0
KAI1 180714Z 18011KT 14/04 A2985 RMK A01 T01370039  RH  051%=      5-min Rain = 0
KAI1 180715Z 18011KT 14/04 A2985 RMK A01 T01370039  RH  051%=      5-min Rain = 0
KAI1 180716Z 17011KT 14/04 A2985 RMK A01 T01370039  RH  051%=      5-min Rain = 0
KAI1 180717Z 18012KT 14/04 A2985 RMK A01 T01370039  RH  051%=      5-min Rain = 0
KAI1 180718Z 17011KT 14/04 A2985 RMK A01 T01370039  RH  052%=      5-min Rain = 0
KAI1 180719Z 17010KT 14/04 A2985 RMK A01 T01370039  RH  052%=      5-min Rain = 0
KAI1 180720Z 17011KT 14/04 A2985 RMK A01 T01360039  RH  052%=      5-min Rain = 0
KAI1 180721Z 17011KT 14/04 A2985 RMK A01 T01360039  RH  052%=      5-min Rain = 0
KAI1 180722Z 18010KT 14/04 A2985 RMK A01 T01360039  RH  052%=      5-min Rain = 0
KAI1 180723Z 17010KT 14/04 A2985 RMK A01 T01350039  RH  052%=      5-min Rain = 0
KAI1 180724Z 17010KT 14/04 A2985 RMK A01 T01350040  RH  052%=      5-min Rain = 0
KAI1 180725Z 17011KT 14/04 A2985 RMK A01 T01350039  RH  052%=      5-min Rain = 0
KAI1 180726Z 18011KT 13/04 A2985 RMK A01 T01340039  RH  052%=      5-min Rain = 0
KAI1 180727Z 17011KT 13/04 A2985 RMK A01 T01340039  RH  052%=      5-min Rain = 0
KAI1 180728Z 18010KT 13/04 A2985 RMK A01 T01340039  RH  052%=      5-min Rain = 0
KAI1 180729Z 17010KT 13/04 A2985 RMK A01 T01340039  RH  053%=      5-min Rain = 0
KAI1 180730Z 17010KT 13/04 A2985 RMK A01 T01340039  RH  053%=      5-min Rain = 0
KAI1 180731Z 18011KT 13/04 A2985 RMK A01 T01330039  RH  053%=      5-min Rain = 0
KAI1 180732Z 18011KT 13/04 A2985 RMK A01 T01340040  RH  053%=      5-min Rain = 0
KAI1 180733Z 18010KT 13/04 A2985 RMK A01 T01330039  RH  053%=      5-min Rain = 0
KAI1 180734Z 17011KT 13/04 A2985 RMK A01 T01330040  RH  053%=      5-min Rain = 0
KAI1 180735Z 18010KT 13/04 A2985 RMK A01 T01330040  RH  053%=      5-min Rain = 0
KAI1 180736Z 18011KT 13/04 A2985 RMK A01 T01330040  RH  053%=      5-min Rain = 0
KAI1 180737Z 18010KT 13/04 A2985 RMK A01 T01320040  RH  053%=      5-min Rain = 0
KAI1 180738Z 17009KT 13/04 A2985 RMK A01 T01320040  RH  054%=      5-min Rain = 0
KAI1 180739Z 17011KT 13/04 A2985 RMK A01 T01320040  RH  054%=      5-min Rain = 0
KAI1 180740Z 18010KT 13/04 A2985 RMK A01 T01320040  RH  054%=      5-min Rain = 0
KAI1 180741Z 18011KT 13/04 A2985 RMK A01 T01320041  RH  054%=      5-min Rain = 0
KAI1 180742Z 18009KT 13/04 A2985 RMK A01 T01320040  RH  054%=      5-min Rain = 0
KAI1 180743Z 17010KT 13/04 A2985 RMK A01 T01320040  RH  054%=      5-min Rain = 0
KAI1 180744Z 18010KT 13/04 A2985 RMK A01 T01320041  RH  054%=      5-min Rain = 0
KAI1 180745Z 18010KT 13/04 A2985 RMK A01 T01320041  RH  054%=      5-min Rain = 0
KAI1 180746Z 18010KT 13/04 A2985 RMK A01 T01310041  RH  054%=      5-min Rain = 0
KAI1 180747Z 17010KT 13/04 A2985 RMK A01 T01310041  RH  054%=      5-min Rain = 0
KAI1 180748Z 18010KT 13/04 A2985 RMK A01 T01310041  RH  054%=      5-min Rain = 0
KAI1 180749Z 17009KT 13/04 A2985 RMK A01 T01310041  RH  054%=      5-min Rain = 0
KAI1 180750Z 18009KT 13/04 A2985 RMK A01 T01300041  RH  055%=      5-min Rain = 0
KAI1 180751Z 18010KT 13/04 A2985 RMK A01 T01300042  RH  055%=      5-min Rain = 0
KAI1 180752Z 17010KT 13/04 A2985 RMK A01 T01300042  RH  055%=      5-min Rain = 0
KAI1 180753Z 17010KT 13/04 A2985 RMK A01 T01300042  RH  055%=      5-min Rain = 0
KAI1 180754Z 18009KT 13/04 A2985 RMK A01 T01300042  RH  055%=      5-min Rain = 0
KAI1 180755Z 17009KT 13/04 A2985 RMK A01 T01300042  RH  055%=      5-min Rain = 0
KAI1 180756Z 17009KT 13/04 A2985 RMK A01 T01290042  RH  056%=      5-min Rain = 0
KAI1 180757Z 17009KT 13/04 A2985 RMK A01 T01290043  RH  056%=      5-min Rain = 0
KAI1 180758Z 18009KT 13/04 A2985 RMK A01 T01280042  RH  056%=      5-min Rain = 0
KAI1 180759Z 17010KT 13/04 A2985 RMK A01 T01280043  RH  056%=      5-min Rain = 0
KAI1 180800Z 18009KT 13/04 A2985 RMK A01 T01280043  RH  056%=      5-min Rain = 0
KAI1 180801Z 18009KT 13/04 A2985 RMK A01 T01280042  RH  056%=      5-min Rain = 0
KAI1 180802Z 18009KT 13/04 A2984 RMK A01 T01290043  RH  056%=      5-min Rain = 0
KAI1 180803Z 17008KT 13/04 A2984 RMK A01 T01290044  RH  056%=      5-min Rain = 0
KAI1 180804Z 18009KT 13/04 A2984 RMK A01 T01280044  RH  056%=      5-min Rain = 0
KAI1 180805Z 18008KT 13/04 A2984 RMK A01 T01270044  RH  057%=      5-min Rain = 0
KAI1 180806Z 17008KT 13/04 A2984 RMK A01 T01280044  RH  057%=      5-min Rain = 0
KAI1 180807Z 17008KT 13/04 A2984 RMK A01 T01270044  RH  057%=      5-min Rain = 0
KAI1 180808Z 17009KT 13/04 A2984 RMK A01 T01270044  RH  057%=      5-min Rain = 0
KAI1 180809Z 17008KT 13/04 A2984 RMK A01 T01270044  RH  057%=      5-min Rain = 0
KAI1 180810Z 17008KT 13/04 A2984 RMK A01 T01260044  RH  057%=      5-min Rain = 0
KAI1 180811Z 18009KT 13/04 A2984 RMK A01 T01260044  RH  057%=      5-min Rain = 0
KAI1 180812Z 18009KT 13/04 A2984 RMK A01 T01260044  RH  058%=      5-min Rain = 0
KAI1 180813Z 18008KT 13/04 A2984 RMK A01 T01260044  RH  058%=      5-min Rain = 0
KAI1 180814Z 18009KT 13/04 A2984 RMK A01 T01250044  RH  058%=      5-min Rain = 0
KAI1 180815Z 18008KT 13/05 A2984 RMK A01 T01250045  RH  058%=      5-min Rain = 0
KAI1 180816Z 17008KT 13/05 A2984 RMK A01 T01250045  RH  058%=      5-min Rain = 0
KAI1 180817Z 17008KT 13/05 A2984 RMK A01 T01250045  RH  058%=      5-min Rain = 0
KAI1 180818Z 17008KT 13/05 A2984 RMK A01 T01250045  RH  058%=      5-min Rain = 0
KAI1 180819Z 17008KT 12/05 A2984 RMK A01 T01240045  RH  058%=      5-min Rain = 0
KAI1 180820Z 18008KT 12/05 A2984 RMK A01 T01240045  RH  059%=      5-min Rain = 0
KAI1 180821Z 18008KT 12/05 A2984 RMK A01 T01240046  RH  059%=      5-min Rain = 0
KAI1 180822Z 18008KT 12/05 A2984 RMK A01 T01240046  RH  059%=      5-min Rain = 0
KAI1 180823Z 18008KT 12/05 A2984 RMK A01 T01230046  RH  059%=      5-min Rain = 0
KAI1 180824Z 18008KT 12/05 A2984 RMK A01 T01230046  RH  059%=      5-min Rain = 0
KAI1 180825Z 18009KT 12/05 A2984 RMK A01 T01230046  RH  059%=      5-min Rain = 0
KAI1 180826Z 18008KT 12/05 A2984 RMK A01 T01240047  RH  060%=      5-min Rain = 0
KAI1 180827Z 18008KT 12/05 A2984 RMK A01 T01240048  RH  060%=      5-min Rain = 0
KAI1 180828Z 18008KT 12/05 A2984 RMK A01 T01230048  RH  060%=      5-min Rain = 0
KAI1 180829Z 18008KT 12/05 A2984 RMK A01 T01230048  RH  060%=      5-min Rain = 0
KAI1 180830Z 18007KT 12/05 A2984 RMK A01 T01230048  RH  060%=      5-min Rain = 0
KAI1 180831Z 18007KT 12/05 A2984 RMK A01 T01230048  RH  060%=      5-min Rain = 0
KAI1 180832Z 18007KT 12/05 A2984 RMK A01 T01220048  RH  060%=      5-min Rain = 0
KAI1 180833Z 18008KT 12/05 A2984 RMK A01 T01220048  RH  061%=      5-min Rain = 0
KAI1 180834Z 17008KT 12/05 A2984 RMK A01 T01220048  RH  061%=      5-min Rain = 0
KAI1 180835Z 18007KT 12/05 A2984 RMK A01 T01220049  RH  061%=      5-min Rain = 0
KAI1 180836Z 18007KT 12/05 A2984 RMK A01 T01220049  RH  061%=      5-min Rain = 0
KAI1 180837Z 18007KT 12/05 A2984 RMK A01 T01210049  RH  061%=      5-min Rain = 0
KAI1 180838Z 17007KT 12/05 A2984 RMK A01 T01210049  RH  061%=      5-min Rain = 0
KAI1 180839Z 17008KT 12/05 A2984 RMK A01 T01210049  RH  061%=      5-min Rain = 0
KAI1 180840Z 17007KT 12/05 A2984 RMK A01 T01200049  RH  062%=      5-min Rain = 0
KAI1 180841Z 17007KT 12/05 A2984 RMK A01 T01200049  RH  062%=      5-min Rain = 0
KAI1 180842Z 17007KT 12/05 A2984 RMK A01 T01190049  RH  062%=      5-min Rain = 0
KAI1 180843Z 17007KT 12/05 A2984 RMK A01 T01190049  RH  062%=      5-min Rain = 0
KAI1 180844Z 17007KT 12/05 A2984 RMK A01 T01180049  RH  062%=      5-min Rain = 0
KAI1 180845Z 17007KT 12/05 A2984 RMK A01 T01180049  RH  063%=      5-min Rain = 0
KAI1 180846Z 17007KT 12/05 A2984 RMK A01 T01170049  RH  063%=      5-min Rain = 0
KAI1 180847Z 17007KT 12/05 A2984 RMK A01 T01170049  RH  063%=      5-min Rain = 0
KAI1 180848Z 17007KT 12/05 A2984 RMK A01 T01160049  RH  063%=      5-min Rain = 0
KAI1 180849Z 17007KT 12/05 A2984 RMK A01 T01150048  RH  063%=      5-min Rain = 0
KAI1 180850Z 17007KT 12/05 A2984 RMK A01 T01150048  RH  064%=      5-min Rain = 0
KAI1 180851Z 17007KT 12/05 A2984 RMK A01 T01150048  RH  064%=      5-min Rain = 0
KAI1 180852Z 17007KT 11/05 A2984 RMK A01 T01140048  RH  064%=      5-min Rain = 0
KAI1 180853Z 17007KT 11/05 A2983 RMK A01 T01140048  RH  064%=      5-min Rain = 0
KAI1 180854Z 17006KT 11/05 A2983 RMK A01 T01130048  RH  064%=      5-min Rain = 0
KAI1 180855Z 17007KT 11/05 A2983 RMK A01 T01130048  RH  064%=      5-min Rain = 0
KAI1 180856Z 16007KT 11/05 A2983 RMK A01 T01120048  RH  065%=      5-min Rain = 0
KAI1 180857Z 17006KT 11/05 A2983 RMK A01 T01110048  RH  065%=      5-min Rain = 0
KAI1 180858Z 17006KT 11/05 A2983 RMK A01 T01110048  RH  065%=      5-min Rain = 0
KAI1 180859Z 17006KT 11/05 A2983 RMK A01 T01100048  RH  065%=      5-min Rain = 0
KAI1 180900Z 17006KT 11/05 A2983 RMK A01 T01100048  RH  065%=      5-min Rain = 0
KAI1 180901Z 17006KT 11/05 A2983 RMK A01 T01100048  RH  065%=      5-min Rain = 0
KAI1 180902Z 17006KT 11/05 A2983 RMK A01 T01090047  RH  066%=      5-min Rain = 0
KAI1 180903Z 17006KT 11/05 A2983 RMK A01 T01090047  RH  066%=      5-min Rain = 0
KAI1 180904Z 17006KT 11/05 A2983 RMK A01 T01080047  RH  066%=      5-min Rain = 0
KAI1 180905Z 17006KT 11/05 A2983 RMK A01 T01080047  RH  066%=      5-min Rain = 0
KAI1 180906Z 17007KT 11/05 A2983 RMK A01 T01070047  RH  066%=      5-min Rain = 0
KAI1 180907Z 17007KT 11/05 A2983 RMK A01 T01070047  RH  066%=      5-min Rain = 0
KAI1 180908Z 17007KT 11/05 A2983 RMK A01 T01070047  RH  067%=      5-min Rain = 0
KAI1 180909Z 16006KT 11/05 A2983 RMK A01 T01060047  RH  067%=      5-min Rain = 0
KAI1 180910Z 17007KT 11/05 A2983 RMK A01 T01060047  RH  067%=      5-min Rain = 0
KAI1 180911Z 16006KT 11/05 A2983 RMK A01 T01060047  RH  067%=      5-min Rain = 0
KAI1 180912Z 16007KT 11/05 A2983 RMK A01 T01060046  RH  067%=      5-min Rain = 0
KAI1 180913Z 16007KT 11/05 A2983 RMK A01 T01050046  RH  067%=      5-min Rain = 0
KAI1 180914Z 16007KT 11/05 A2983 RMK A01 T01050046  RH  067%=      5-min Rain = 0
KAI1 180915Z 16007KT 10/05 A2983 RMK A01 T01040046  RH  067%=      5-min Rain = 0
KAI1 180916Z 16007KT 10/05 A2983 RMK A01 T01040046  RH  067%=      5-min Rain = 0
KAI1 180917Z 16007KT 10/05 A2983 RMK A01 T01030045  RH  067%=      5-min Rain = 0
KAI1 180918Z 15006KT 10/05 A2983 RMK A01 T01030046  RH  068%=      5-min Rain = 0
KAI1 180919Z 16006KT 10/05 A2983 RMK A01 T01020045  RH  068%=      5-min Rain = 0
KAI1 180920Z 16007KT 10/04 A2983 RMK A01 T01010044  RH  068%=      5-min Rain = 0
KAI1 180921Z 16006KT 10/04 A2983 RMK A01 T01010044  RH  068%=      5-min Rain = 0
KAI1 180922Z 16007KT 10/04 A2982 RMK A01 T01010043  RH  068%=      5-min Rain = 0
KAI1 180923Z 16007KT 10/04 A2982 RMK A01 T01010043  RH  067%=      5-min Rain = 0
KAI1 180924Z 16007KT 10/04 A2982 RMK A01 T01000043  RH  067%=      5-min Rain = 0
KAI1 180925Z 16007KT 10/04 A2982 RMK A01 T01000042  RH  067%=      5-min Rain = 0
KAI1 180926Z 16007KT 10/04 A2982 RMK A01 T01000042  RH  067%=      5-min Rain = 0
KAI1 180927Z 16007KT 10/04 A2982 RMK A01 T01010042  RH  067%=      5-min Rain = 0
KAI1 180928Z 17007KT 10/04 A2982 RMK A01 T01000042  RH  067%=      5-min Rain = 0
KAI1 180929Z 16007KT 10/04 A2982 RMK A01 T01000042  RH  067%=      5-min Rain = 0
KAI1 180930Z 16007KT 10/04 A2982 RMK A01 T01000042  RH  067%=      5-min Rain = 0
KAI1 180931Z 16008KT 10/04 A2982 RMK A01 T01000042  RH  067%=      5-min Rain = 0
KAI1 180932Z 17007KT 10/04 A2982 RMK A01 T01000042  RH  067%=      5-min Rain = 0
KAI1 180933Z 16007KT 10/04 A2982 RMK A01 T01000042  RH  067%=      5-min Rain = 0
KAI1 180934Z 17007KT 10/04 A2982 RMK A01 T01000043  RH  067%=      5-min Rain = 0
KAI1 180935Z 17007KT 10/04 A2982 RMK A01 T01000042  RH  067%=      5-min Rain = 0
KAI1 180936Z 17007KT 10/04 A2982 RMK A01 T00990042  RH  068%=      5-min Rain = 0
KAI1 180937Z 17007KT 10/04 A2982 RMK A01 T00990043  RH  068%=      5-min Rain = 0
KAI1 180938Z 17007KT 10/04 A2982 RMK A01 T00990043  RH  068%=      5-min Rain = 0
KAI1 180939Z 17007KT 10/04 A2982 RMK A01 T00990043  RH  068%=      5-min Rain = 0
KAI1 180940Z 17007KT 10/04 A2982 RMK A01 T00990043  RH  068%=      5-min Rain = 0
KAI1 180941Z 17007KT 10/04 A2982 RMK A01 T00990044  RH  069%=      5-min Rain = 0
KAI1 180942Z 17007KT 10/04 A2982 RMK A01 T00990044  RH  069%=      5-min Rain = 0
KAI1 180943Z 17007KT 10/04 A2982 RMK A01 T00980044  RH  069%=      5-min Rain = 0
KAI1 180944Z 17007KT 10/04 A2982 RMK A01 T00980044  RH  069%=      5-min Rain = 0
KAI1 180945Z 17008KT 10/04 A2982 RMK A01 T00980044  RH  069%=      5-min Rain = 0
KAI1 180946Z 17007KT 10/04 A2982 RMK A01 T00980044  RH  070%=      5-min Rain = 0
KAI1 180947Z 17007KT 10/05 A2981 RMK A01 T00970045  RH  070%=      5-min Rain = 0
KAI1 180948Z 17007KT 10/05 A2982 RMK A01 T00970045  RH  070%=      5-min Rain = 0
KAI1 180949Z 17007KT 10/05 A2981 RMK A01 T00970045  RH  070%=      5-min Rain = 0
KAI1 180950Z 17008KT 10/05 A2981 RMK A01 T00980045  RH  070%=      5-min Rain = 0
KAI1 180951Z 17008KT 10/05 A2981 RMK A01 T00980046  RH  070%=      5-min Rain = 0
KAI1 180952Z 17008KT 10/05 A2981 RMK A01 T00990047  RH  070%=      5-min Rain = 0
KAI1 180953Z 17008KT 10/05 A2981 RMK A01 T00990047  RH  070%=      5-min Rain = 0
KAI1 180954Z 17008KT 10/05 A2981 RMK A01 T01000047  RH  070%=      5-min Rain = 0
KAI1 180955Z 17007KT 10/05 A2981 RMK A01 T01000047  RH  070%=      5-min Rain = 0
KAI1 180956Z 17007KT 10/05 A2981 RMK A01 T00990047  RH  070%=      5-min Rain = 0
KAI1 180957Z 17007KT 10/05 A2981 RMK A01 T00990046  RH  070%=      5-min Rain = 0
KAI1 180958Z 17007KT 10/05 A2981 RMK A01 T00980046  RH  070%=      5-min Rain = 0
KAI1 180959Z 17007KT 10/05 A2982 RMK A01 T00980046  RH  070%=      5-min Rain = 0
KAI1 181000Z 17007KT 10/05 A2982 RMK A01 T00970046  RH  071%=      5-min Rain = 0
KAI1 181001Z 17007KT 10/05 A2982 RMK A01 T00970047  RH  071%=      5-min Rain = 0
KAI1 181002Z 17007KT 10/05 A2982 RMK A01 T00960047  RH  071%=      5-min Rain = 0
KAI1 181003Z 17007KT 10/05 A2982 RMK A01 T00960047  RH  071%=      5-min Rain = 0
KAI1 181004Z 18007KT 10/05 A2982 RMK A01 T00960047  RH  071%=      5-min Rain = 0
KAI1 181005Z 18007KT 10/05 A2982 RMK A01 T00950047  RH  072%=      5-min Rain = 0
KAI1 181006Z 18007KT 10/05 A2982 RMK A01 T00950047  RH  072%=      5-min Rain = 0
KAI1 181007Z 18007KT 10/05 A2982 RMK A01 T00950047  RH  072%=      5-min Rain = 0
KAI1 181008Z 18007KT 10/05 A2982 RMK A01 T00950047  RH  072%=      5-min Rain = 0
KAI1 181009Z 19007KT 10/05 A2982 RMK A01 T00950048  RH  072%=      5-min Rain = 0
KAI1 181010Z 19008KT 10/05 A2982 RMK A01 T00950048  RH  073%=      5-min Rain = 0
KAI1 181011Z 19008KT 09/05 A2982 RMK A01 T00940048  RH  073%=      5-min Rain = 0
KAI1 181012Z 19009KT 09/05 A2982 RMK A01 T00940048  RH  073%=      5-min Rain = 0
KAI1 181013Z 19009KT 09/05 A2982 RMK A01 T00940049  RH  073%=      5-min Rain = 0
KAI1 181014Z 19009KT 10/05 A2982 RMK A01 T00950050  RH  073%=      5-min Rain = 0
KAI1 181015Z 19009KT 10/05 A2982 RMK A01 T00950051  RH  074%=      5-min Rain = 0
KAI1 181016Z 19009KT 10/05 A2982 RMK A01 T00970053  RH  074%=      5-min Rain = 0
KAI1 181017Z 19009KT 10/05 A2982 RMK A01 T00980053  RH  074%=      5-min Rain = 0
KAI1 181018Z 19009KT 10/05 A2982 RMK A01 T00980054  RH  074%=      5-min Rain = 0
KAI1 181019Z 19009KT 10/06 A2982 RMK A01 T00980055  RH  074%=      5-min Rain = 0
KAI1 181020Z 19009KT 10/06 A2982 RMK A01 T00990055  RH  074%=      5-min Rain = 0
KAI1 181021Z 19009KT 10/06 A2982 RMK A01 T00990057  RH  075%=      5-min Rain = 0
KAI1 181022Z 19009KT 10/06 A2982 RMK A01 T00990058  RH  075%=      5-min Rain = 0
KAI1 181023Z 19008KT 10/06 A2982 RMK A01 T01000059  RH  076%=      5-min Rain = 0
KAI1 181024Z 19009KT 10/06 A2982 RMK A01 T01010059  RH  075%=      5-min Rain = 0
KAI1 181025Z 19009KT 10/06 A2982 RMK A01 T01010060  RH  075%=      5-min Rain = 0
KAI1 181026Z 19009KT 10/06 A2982 RMK A01 T01030061  RH  075%=      5-min Rain = 0
KAI1 181027Z 19009KT 10/06 A2982 RMK A01 T01030061  RH  075%=      5-min Rain = 0
KAI1 181028Z 19009KT 10/06 A2982 RMK A01 T01030062  RH  076%=      5-min Rain = 0
KAI1 181029Z 18009KT 10/06 A2981 RMK A01 T01040063  RH  076%=      5-min Rain = 0
KAI1 181030Z 18009KT 11/06 A2981 RMK A01 T01050064  RH  076%=      5-min Rain = 0
KAI1 181031Z 18009KT 11/06 A2981 RMK A01 T01060064  RH  076%=      5-min Rain = 0
KAI1 181032Z 18009KT 11/07 A2981 RMK A01 T01060065  RH  076%=      5-min Rain = 0
KAI1 181033Z 19009KT 11/07 A2981 RMK A01 T01070066  RH  076%=      5-min Rain = 0
KAI1 181034Z 18009KT 11/07 A2981 RMK A01 T01080067  RH  076%=      5-min Rain = 0
KAI1 181035Z 19009KT 11/07 A2981 RMK A01 T01080067  RH  076%=      5-min Rain = 0
KAI1 181036Z 19009KT 11/07 A2981 RMK A01 T01080067  RH  076%=      5-min Rain = 0
KAI1 181037Z 19009KT 11/07 A2981 RMK A01 T01080067  RH  076%=      5-min Rain = 0
KAI1 181038Z 19009KT 11/07 A2981 RMK A01 T01090068  RH  076%=      5-min Rain = 0
KAI1 181039Z 19009KT 11/07 A2982 RMK A01 T01080068  RH  076%=      5-min Rain = 0
KAI1 181040Z 19009KT 11/07 A2982 RMK A01 T01080068  RH  076%=      5-min Rain = 0
KAI1 181041Z 19008KT 11/07 A2982 RMK A01 T01080069  RH  077%=      5-min Rain = 0
KAI1 181042Z 19009KT 11/07 A2982 RMK A01 T01080069  RH  077%=      5-min Rain = 0
KAI1 181043Z 19009KT 11/07 A2982 RMK A01 T01090070  RH  077%=      5-min Rain = 0
KAI1 181044Z 19009KT 11/07 A2982 RMK A01 T01090070  RH  077%=      5-min Rain = 0
KAI1 181045Z 19009KT 11/07 A2982 RMK A01 T01100071  RH  077%=      5-min Rain = 0
KAI1 181046Z 19008KT 11/07 A2982 RMK A01 T01110072  RH  077%=      5-min Rain = 0
KAI1 181047Z 19009KT 11/07 A2982 RMK A01 T01110072  RH  077%=      5-min Rain = 0
KAI1 181048Z 19009KT 11/07 A2982 RMK A01 T01110072  RH  077%=      5-min Rain = 0
KAI1 181049Z 19009KT 11/07 A2982 RMK A01 T01110073  RH  077%=      5-min Rain = 0
KAI1 181050Z 19008KT 11/07 A2982 RMK A01 T01120073  RH  077%=      5-min Rain = 0
KAI1 181051Z 19009KT 11/07 A2982 RMK A01 T01130074  RH  077%=      5-min Rain = 0
KAI1 181052Z 19008KT 11/07 A2982 RMK A01 T01130074  RH  077%=      5-min Rain = 0
KAI1 181053Z 19008KT 11/07 A2982 RMK A01 T01130074  RH  077%=      5-min Rain = 0
KAI1 181054Z 19009KT 11/07 A2982 RMK A01 T01130074  RH  077%=      5-min Rain = 0
KAI1 181055Z 19009KT 11/07 A2982 RMK A01 T01130074  RH  077%=      5-min Rain = 0
KAI1 181056Z 19009KT 11/07 A2982 RMK A01 T01130074  RH  077%=      5-min Rain = 0
KAI1 181057Z 19009KT 11/08 A2982 RMK A01 T01140075  RH  077%=      5-min Rain = 0
KAI1 181058Z 19009KT 11/08 A2982 RMK A01 T01140075  RH  077%=      5-min Rain = 0
KAI1 181059Z 19008KT 11/08 A2982 RMK A01 T01140076  RH  077%=      5-min Rain = 0
KAI1 181100Z 19009KT 11/08 A2982 RMK A01 T01140076  RH  077%=      5-min Rain = 0
KAI1 181101Z 19010KT 11/08 A2982 RMK A01 T01140076  RH  078%=      5-min Rain = 0
KAI1 181102Z 19009KT 11/08 A2982 RMK A01 T01140077  RH  078%=      5-min Rain = 0
KAI1 181103Z 19009KT 12/08 A2982 RMK A01 T01150077  RH  078%=      5-min Rain = 0
KAI1 181104Z 19009KT 12/08 A2982 RMK A01 T01150078  RH  078%=      5-min Rain = 0
KAI1 181105Z 19009KT 12/08 A2982 RMK A01 T01150079  RH  078%=      5-min Rain = 0
KAI1 181106Z 19009KT 12/08 A2982 RMK A01 T01160079  RH  078%=      5-min Rain = 0
KAI1 181107Z 19009KT 12/08 A2982 RMK A01 T01160079  RH  078%=      5-min Rain = 0
KAI1 181108Z 19009KT 12/08 A2982 RMK A01 T01160079  RH  078%=      5-min Rain = 0
KAI1 181109Z 19009KT 12/08 A2982 RMK A01 T01160079  RH  078%=      5-min Rain = 0
KAI1 181110Z 19009KT 12/08 A2982 RMK A01 T01160080  RH  078%=      5-min Rain = 0
KAI1 181111Z 19009KT 12/08 A2982 RMK A01 T01160080  RH  079%=      5-min Rain = 0
KAI1 181112Z 19009KT 12/08 A2982 RMK A01 T01160080  RH  079%=      5-min Rain = 0
KAI1 181113Z 19009KT 12/08 A2982 RMK A01 T01160081  RH  079%=      5-min Rain = 0
KAI1 181114Z 19009KT 12/08 A2981 RMK A01 T01160081  RH  079%=      5-min Rain = 0
KAI1 181115Z 19009KT 12/08 A2981 RMK A01 T01160081  RH  079%=      5-min Rain = 0
KAI1 181116Z 19009KT 12/08 A2981 RMK A01 T01160082  RH  079%=      5-min Rain = 0
KAI1 181117Z 19009KT 12/08 A2981 RMK A01 T01170082  RH  079%=      5-min Rain = 0
KAI1 181118Z 19008KT 12/08 A2981 RMK A01 T01170082  RH  079%=      5-min Rain = 0
KAI1 181119Z 19009KT 12/08 A2981 RMK A01 T01170082  RH  079%=      5-min Rain = 0
KAI1 181120Z 19009KT 12/08 A2981 RMK A01 T01170083  RH  079%=      5-min Rain = 0
KAI1 181121Z 19009KT 12/08 A2981 RMK A01 T01170083  RH  079%=      5-min Rain = 0
KAI1 181122Z 19009KT 12/08 A2981 RMK A01 T01170083  RH  080%=      5-min Rain = 0
KAI1 181123Z 19008KT 12/08 A2981 RMK A01 T01170083  RH  079%=      5-min Rain = 0
KAI1 181124Z 19009KT 12/08 A2981 RMK A01 T01170083  RH  079%=      5-min Rain = 0
KAI1 181125Z 19008KT 12/08 A2981 RMK A01 T01170083  RH  080%=      5-min Rain = 0
KAI1 181126Z 19009KT 12/08 A2981 RMK A01 T01170083  RH  080%=      5-min Rain = 0
KAI1 181127Z 19009KT 12/08 A2981 RMK A01 T01170084  RH  080%=      5-min Rain = 0
KAI1 181128Z 18008KT 12/08 A2981 RMK A01 T01170084  RH  080%=      5-min Rain = 0
KAI1 181129Z 19008KT 12/08 A2981 RMK A01 T01170084  RH  080%=      5-min Rain = 0
KAI1 181130Z 19009KT 12/08 A2981 RMK A01 T01170084  RH  080%=      5-min Rain = 0
KAI1 181131Z 19009KT 12/08 A2981 RMK A01 T01170084  RH  080%=      5-min Rain = 0
KAI1 181132Z 19008KT 12/08 A2981 RMK A01 T01170084  RH  080%=      5-min Rain = 0
KAI1 181133Z 19008KT 12/08 A2981 RMK A01 T01170084  RH  080%=      5-min Rain = 0
KAI1 181134Z 19008KT 12/08 A2981 RMK A01 T01170084  RH  080%=      5-min Rain = 0
KAI1 181135Z 18008KT 12/08 A2981 RMK A01 T01170084  RH  081%=      5-min Rain = 0
KAI1 181136Z 19009KT 12/09 A2981 RMK A01 T01170085  RH  081%=      5-min Rain = 0
KAI1 181137Z 19009KT 12/09 A2981 RMK A01 T01170085  RH  081%=      5-min Rain = 0
KAI1 181138Z 19007KT 12/09 A2981 RMK A01 T01170085  RH  081%=      5-min Rain = 0
KAI1 181139Z 19008KT 12/09 A2981 RMK A01 T01170085  RH  081%=      5-min Rain = 0
KAI1 181140Z 19008KT 12/09 A2981 RMK A01 T01170085  RH  081%=      5-min Rain = 0
KAI1 181141Z 19007KT 12/09 A2981 RMK A01 T01160086  RH  082%=      5-min Rain = 0
KAI1 181142Z 19007KT 12/09 A2981 RMK A01 T01170086  RH  082%=      5-min Rain = 0
KAI1 181143Z 19008KT 12/09 A2982 RMK A01 T01160086  RH  082%=      5-min Rain = 0
KAI1 181144Z 20008KT 12/09 A2982 RMK A01 T01160086  RH  082%=      5-min Rain = 0
KAI1 181145Z 19007KT 12/09 A2982 RMK A01 T01150086  RH  082%=      5-min Rain = 0
KAI1 181146Z 20007KT 12/09 A2982 RMK A01 T01160087  RH  082%=      5-min Rain = 0
KAI1 181147Z 20007KT 12/09 A2982 RMK A01 T01150087  RH  083%=      5-min Rain = 0
KAI1 181148Z 20007KT 12/09 A2982 RMK A01 T01150087  RH  083%=      5-min Rain = 0
KAI1 181149Z 20007KT 12/09 A2982 RMK A01 T01150087  RH  083%=      5-min Rain = 0
KAI1 181150Z 20007KT 12/09 A2982 RMK A01 T01150087  RH  083%=      5-min Rain = 0
KAI1 181151Z 19008KT 12/09 A2982 RMK A01 T01150088  RH  083%=      5-min Rain = 0
KAI1 181152Z 20008KT 12/09 A2982 RMK A01 T01150088  RH  083%=      5-min Rain = 0
KAI1 181153Z 19008KT 12/09 A2982 RMK A01 T01160089  RH  083%=      5-min Rain = 0
KAI1 181154Z 20008KT 12/09 A2982 RMK A01 T01160089  RH  083%=      5-min Rain = 0
KAI1 181155Z 19008KT 12/09 A2982 RMK A01 T01160089  RH  083%=      5-min Rain = 0
KAI1 181156Z 19008KT 12/09 A2982 RMK A01 T01160089  RH  083%=      5-min Rain = 0
KAI1 181157Z 20008KT 12/09 A2982 RMK A01 T01160089  RH  084%=      5-min Rain = 0
KAI1 181158Z 20008KT 12/09 A2982 RMK A01 T01160089  RH  083%=      5-min Rain = 0
KAI1 181159Z 20008KT 12/09 A2982 RMK A01 T01160089  RH  083%=      5-min Rain = 0
KAI1 181200Z 20008KT 12/09 A2982 RMK A01 T01160089  RH  084%=      5-min Rain = 0
KAI1 181201Z 20007KT 12/09 A2982 RMK A01 T01160089  RH  084%=      5-min Rain = 0
KAI1 181202Z 20007KT 12/09 A2982 RMK A01 T01160089  RH  084%=      5-min Rain = 0
KAI1 181203Z 19007KT 12/09 A2982 RMK A01 T01150089  RH  084%=      5-min Rain = 0
KAI1 181204Z 19007KT 12/09 A2982 RMK A01 T01150089  RH  084%=      5-min Rain = 0
KAI1 181205Z 19007KT 12/09 A2982 RMK A01 T01150089  RH  084%=      5-min Rain = 0
KAI1 181206Z 19006KT 12/09 A2982 RMK A01 T01150089  RH  084%=      5-min Rain = 0
KAI1 181207Z 19007KT 12/09 A2982 RMK A01 T01150089  RH  084%=      5-min Rain = 0
KAI1 181208Z 19008KT 12/09 A2982 RMK A01 T01150089  RH  084%=      5-min Rain = 0
KAI1 181209Z 19006KT 12/09 A2982 RMK A01 T01150089  RH  084%=      5-min Rain = 0
KAI1 181210Z 19006KT 12/09 A2982 RMK A01 T01150089  RH  084%=      5-min Rain = 0
KAI1 181211Z 19006KT 12/09 A2982 RMK A01 T01160089  RH  084%=      5-min Rain = 0
KAI1 181212Z 19006KT 12/09 A2982 RMK A01 T01150089  RH  084%=      5-min Rain = 0
KAI1 181213Z 19007KT 12/09 A2982 RMK A01 T01150088  RH  084%=      5-min Rain = 0
KAI1 181214Z 18007KT 11/09 A2982 RMK A01 T01140088  RH  084%=      5-min Rain = 0
KAI1 181215Z 19007KT 11/09 A2982 RMK A01 T01140089  RH  084%=      5-min Rain = 0
KAI1 181216Z 18006KT 11/09 A2982 RMK A01 T01140089  RH  084%=      5-min Rain = 0
KAI1 181217Z 18006KT 11/09 A2982 RMK A01 T01140089  RH  084%=      5-min Rain = 0
KAI1 181218Z 18006KT 11/09 A2982 RMK A01 T01140088  RH  084%=      5-min Rain = 0
KAI1 181219Z 18007KT 11/09 A2981 RMK A01 T01130088  RH  084%=      5-min Rain = 0
KAI1 181220Z 18007KT 11/09 A2981 RMK A01 T01130088  RH  085%=      5-min Rain = 0
KAI1 181221Z 18007KT 11/09 A2981 RMK A01 T01130088  RH  085%=      5-min Rain = 0
KAI1 181222Z 18007KT 11/09 A2981 RMK A01 T01130088  RH  085%=      5-min Rain = 0
KAI1 181223Z 18007KT 11/09 A2981 RMK A01 T01120087  RH  085%=      5-min Rain = 0
KAI1 181224Z 18007KT 11/09 A2981 RMK A01 T01120087  RH  085%=      5-min Rain = 0
KAI1 181225Z 18007KT 11/09 A2981 RMK A01 T01120087  RH  085%=      5-min Rain = 0
KAI1 181226Z 17007KT 11/09 A2981 RMK A01 T01110087  RH  085%=      5-min Rain = 0
KAI1 181227Z 17007KT 11/09 A2981 RMK A01 T01110087  RH  085%=      5-min Rain = 0
KAI1 181228Z 17007KT 11/09 A2981 RMK A01 T01100087  RH  085%=      5-min Rain = 0
KAI1 181229Z 17007KT 11/09 A2981 RMK A01 T01100087  RH  086%=      5-min Rain = 0
KAI1 181230Z 17007KT 11/09 A2981 RMK A01 T01090087  RH  086%=      5-min Rain = 0
KAI1 181231Z 17007KT 11/09 A2981 RMK A01 T01090087  RH  086%=      5-min Rain = 0
KAI1 181232Z 17007KT 11/09 A2981 RMK A01 T01090088  RH  087%=      5-min Rain = 0
KAI1 181233Z 17007KT 11/09 A2981 RMK A01 T01090088  RH  087%=      5-min Rain = 0
KAI1 181234Z 17008KT 11/09 A2981 RMK A01 T01090088  RH  087%=      5-min Rain = 0
KAI1 181235Z 17008KT 11/09 A2981 RMK A01 T01100089  RH  087%=      5-min Rain = 0
KAI1 181236Z 17008KT 11/09 A2981 RMK A01 T01110090  RH  087%=      5-min Rain = 0
KAI1 181237Z 18008KT 11/09 A2981 RMK A01 T01120090  RH  086%=      5-min Rain = 0
KAI1 181238Z 18008KT 11/09 A2981 RMK A01 T01130091  RH  086%=      5-min Rain = 0
KAI1 181239Z 18009KT 11/09 A2981 RMK A01 T01140091  RH  086%=      5-min Rain = 0
KAI1 181240Z 18008KT 12/09 A2981 RMK A01 T01150092  RH  086%=      5-min Rain = 0
KAI1 181241Z 18008KT 12/09 A2981 RMK A01 T01150091  RH  085%=      5-min Rain = 0
KAI1 181242Z 18008KT 12/09 A2981 RMK A01 T01150091  RH  085%=      5-min Rain = 0
KAI1 181243Z 18008KT 12/09 A2981 RMK A01 T01160092  RH  085%=      5-min Rain = 0
KAI1 181244Z 18008KT 12/09 A2981 RMK A01 T01150091  RH  085%=      5-min Rain = 0
KAI1 181245Z 18007KT 12/09 A2981 RMK A01 T01150092  RH  085%=      5-min Rain = 0
KAI1 181246Z 18007KT 12/09 A2981 RMK A01 T01160092  RH  085%=      5-min Rain = 0
KAI1 181247Z 18008KT 12/09 A2981 RMK A01 T01150092  RH  085%=      5-min Rain = 0
KAI1 181248Z 18007KT 12/09 A2981 RMK A01 T01150092  RH  085%=      5-min Rain = 0
KAI1 181249Z 18007KT 12/09 A2981 RMK A01 T01150092  RH  086%=      5-min Rain = 0
KAI1 181250Z 18007KT 12/09 A2981 RMK A01 T01150092  RH  085%=      5-min Rain = 0
KAI1 181251Z 18007KT 12/09 A2981 RMK A01 T01150091  RH  085%=      5-min Rain = 0
KAI1 181252Z 18007KT 12/09 A2981 RMK A01 T01150092  RH  085%=      5-min Rain = 0
KAI1 181253Z 18008KT 12/09 A2981 RMK A01 T01150092  RH  085%=      5-min Rain = 0
KAI1 181254Z 18008KT 12/09 A2981 RMK A01 T01160092  RH  085%=      5-min Rain = 0
KAI1 181255Z 18007KT 12/09 A2981 RMK A01 T01150092  RH  086%=      5-min Rain = 0
KAI1 181256Z 18008KT 12/09 A2981 RMK A01 T01150092  RH  085%=      5-min Rain = 0
KAI1 181257Z 18007KT 12/09 A2981 RMK A01 T01150091  RH  085%=      5-min Rain = 0
KAI1 181258Z 18007KT 12/09 A2981 RMK A01 T01150092  RH  086%=      5-min Rain = 0
KAI1 181259Z 18007KT 12/09 A2981 RMK A01 T01150092  RH  086%=      5-min Rain = 0
KAI1 181300Z 19006KT 12/09 A2981 RMK A01 T01150092  RH  086%=      5-min Rain = 0
KAI1 181301Z 19007KT 12/09 A2981 RMK A01 T01150092  RH  086%=      5-min Rain = 0
KAI1 181302Z 19007KT 12/09 A2981 RMK A01 T01160092  RH  086%=      5-min Rain = 0
KAI1 181303Z 18007KT 12/09 A2981 RMK A01 T01160092  RH  085%=      5-min Rain = 0
KAI1 181304Z 18008KT 12/09 A2981 RMK A01 T01160092  RH  085%=      5-min Rain = 0
KAI1 181305Z 18007KT 12/09 A2981 RMK A01 T01170092  RH  085%=      5-min Rain = 0
KAI1 181306Z 18007KT 12/09 A2981 RMK A01 T01170093  RH  085%=      5-min Rain = 0
KAI1 181307Z 19008KT 12/09 A2981 RMK A01 T01170093  RH  085%=      5-min Rain = 0
KAI1 181308Z 19008KT 12/09 A2981 RMK A01 T01180093  RH  085%=      5-min Rain = 0
KAI1 181309Z 19008KT 12/09 A2981 RMK A01 T01180093  RH  085%=      5-min Rain = 0
KAI1 181310Z 19008KT 12/09 A2981 RMK A01 T01190094  RH  085%=      5-min Rain = 0
KAI1 181311Z 18009KT 12/09 A2981 RMK A01 T01190094  RH  084%=      5-min Rain = 0
KAI1 181312Z 18009KT 12/09 A2981 RMK A01 T01200094  RH  084%=      5-min Rain = 0
KAI1 181313Z 18008KT 12/09 A2981 RMK A01 T01210094  RH  084%=      5-min Rain = 0
KAI1 181314Z 18008KT 12/09 A2981 RMK A01 T01210094  RH  084%=      5-min Rain = 0
KAI1 181315Z 18009KT 12/09 A2981 RMK A01 T01210094  RH  084%=      5-min Rain = 0
KAI1 181316Z 19009KT 12/10 A2981 RMK A01 T01220095  RH  083%=      5-min Rain = 0
KAI1 181317Z 18009KT 12/10 A2981 RMK A01 T01220095  RH  083%=      5-min Rain = 0
KAI1 181318Z 18009KT 12/10 A2981 RMK A01 T01230095  RH  083%=      5-min Rain = 0
KAI1 181319Z 18009KT 12/10 A2981 RMK A01 T01230095  RH  083%=      5-min Rain = 0
KAI1 181320Z 19009KT 12/10 A2981 RMK A01 T01240095  RH  083%=      5-min Rain = 0
KAI1 181321Z 19009KT 12/10 A2981 RMK A01 T01240096  RH  083%=      5-min Rain = 0
KAI1 181322Z 19009KT 13/10 A2981 RMK A01 T01250096  RH  082%=      5-min Rain = 0
KAI1 181323Z 19009KT 13/10 A2981 RMK A01 T01260096  RH  082%=      5-min Rain = 0
KAI1 181324Z 18009KT 13/10 A2981 RMK A01 T01260096  RH  082%=      5-min Rain = 0
KAI1 181325Z 18010KT 13/10 A2981 RMK A01 T01260096  RH  082%=      5-min Rain = 0
KAI1 181326Z 19009KT 13/10 A2981 RMK A01 T01270096  RH  082%=      5-min Rain = 0
KAI1 181327Z 19009KT 13/10 A2981 RMK A01 T01280096  RH  081%=      5-min Rain = 0
KAI1 181328Z 19008KT 13/10 A2981 RMK A01 T01280096  RH  081%=      5-min Rain = 0
KAI1 181329Z 19009KT 13/10 A2981 RMK A01 T01280097  RH  081%=      5-min Rain = 0
KAI1 181330Z 19010KT 13/10 A2981 RMK A01 T01280097  RH  081%=      5-min Rain = 0
KAI1 181331Z 19009KT 13/10 A2981 RMK A01 T01290097  RH  081%=      5-min Rain = 0
KAI1 181332Z 19010KT 13/10 A2981 RMK A01 T01290098  RH  081%=      5-min Rain = 0
KAI1 181333Z 19010KT 13/10 A2981 RMK A01 T01300097  RH  081%=      5-min Rain = 0
KAI1 181334Z 19009KT 13/10 A2981 RMK A01 T01300098  RH  081%=      5-min Rain = 0
KAI1 181335Z 19010KT 13/10 A2981 RMK A01 T01310098  RH  080%=      5-min Rain = 0
KAI1 181336Z 19010KT 13/10 A2981 RMK A01 T01310098  RH  080%=      5-min Rain = 0
KAI1 181337Z 19009KT 13/10 A2981 RMK A01 T01320098  RH  080%=      5-min Rain = 0
KAI1 181338Z 19008KT 13/10 A2981 RMK A01 T01320098  RH  080%=      5-min Rain = 0
KAI1 181339Z 19009KT 13/10 A2981 RMK A01 T01330099  RH  080%=      5-min Rain = 0
KAI1 181340Z 19009KT 13/10 A2981 RMK A01 T01330098  RH  079%=      5-min Rain = 0
KAI1 181341Z 19010KT 13/10 A2981 RMK A01 T01340099  RH  079%=      5-min Rain = 0
KAI1 181342Z 19010KT 13/10 A2981 RMK A01 T01340099  RH  079%=      5-min Rain = 0
KAI1 181343Z 19010KT 13/10 A2981 RMK A01 T01340099  RH  079%=      5-min Rain = 0
KAI1 181344Z 19009KT 14/10 A2981 RMK A01 T01350099  RH  079%=      5-min Rain = 0
KAI1 181345Z 19009KT 14/10 A2981 RMK A01 T01360099  RH  078%=      5-min Rain = 0
KAI1 181346Z 19010KT 14/10 A2981 RMK A01 T01360099  RH  078%=      5-min Rain = 0
KAI1 181347Z 19010KT 14/10 A2981 RMK A01 T01370099  RH  078%=      5-min Rain = 0
KAI1 181348Z 19010KT 14/10 A2981 RMK A01 T01370100  RH  078%=      5-min Rain = 0
KAI1 181349Z 20010KT 14/10 A2981 RMK A01 T01380100  RH  078%=      5-min Rain = 0
KAI1 181350Z 20010KT 14/10 A2981 RMK A01 T01390100  RH  078%=      5-min Rain = 0
KAI1 181351Z 20009KT 14/10 A2981 RMK A01 T01390100  RH  077%=      5-min Rain = 0
KAI1 181352Z 20011KT 14/10 A2981 RMK A01 T01400101  RH  077%=      5-min Rain = 0
KAI1 181353Z 20010KT 14/10 A2981 RMK A01 T01410101  RH  077%=      5-min Rain = 0
KAI1 181354Z 20010KT 14/10 A2981 RMK A01 T01420101  RH  077%=      5-min Rain = 0
KAI1 181355Z 20010KT 14/10 A2981 RMK A01 T01420101  RH  076%=      5-min Rain = 0
KAI1 181356Z 19011KT 14/10 A2981 RMK A01 T01430101  RH  076%=      5-min Rain = 0
KAI1 181357Z 20013KT 14/10 A2981 RMK A01 T01440101  RH  076%=      5-min Rain = 0
KAI1 181358Z 19013KT 14/10 A2981 RMK A01 T01440101  RH  075%=      5-min Rain = 0
KAI1 181359Z 20011KT 15/10 A2981 RMK A01 T01450101  RH  075%=      5-min Rain = 0
KAI1 181400Z 20010KT 15/10 A2981 RMK A01 T01450101  RH  075%=      5-min Rain = 0
KAI1 181401Z 19011KT 15/10 A2981 RMK A01 T01450101  RH  075%=      5-min Rain = 0
KAI1 181402Z 19012KT 15/10 A2981 RMK A01 T01460101  RH  075%=      5-min Rain = 0
KAI1 181403Z 19012KT 15/10 A2981 RMK A01 T01470102  RH  074%=      5-min Rain = 0
KAI1 181404Z 19011KT 15/10 A2981 RMK A01 T01470101  RH  074%=      5-min Rain = 0
KAI1 181405Z 19010KT 15/10 A2981 RMK A01 T01470102  RH  074%=      5-min Rain = 0
KAI1 181406Z 20014KT 15/10 A2981 RMK A01 T01480102  RH  074%=      5-min Rain = 0
KAI1 181407Z 19014KT 15/10 A2981 RMK A01 T01490102  RH  073%=      5-min Rain = 0
KAI1 181408Z 19013KT 15/10 A2981 RMK A01 T01490102  RH  073%=      5-min Rain = 0
KAI1 181409Z 19013KT 15/10 A2981 RMK A01 T01490102  RH  073%=      5-min Rain = 0
KAI1 181410Z 19013KT 15/10 A2981 RMK A01 T01500101  RH  073%=      5-min Rain = 0
KAI1 181411Z 19012KT 15/10 A2981 RMK A01 T01490101  RH  073%=      5-min Rain = 0
KAI1 181412Z 20013KT 15/10 A2981 RMK A01 T01500102  RH  073%=      5-min Rain = 0
KAI1 181413Z 20012KT 15/10 A2981 RMK A01 T01500102  RH  073%=      5-min Rain = 0
KAI1 181414Z 20012KT 15/10 A2981 RMK A01 T01510102  RH  073%=      5-min Rain = 0
KAI1 181415Z 20012KT 15/10 A2981 RMK A01 T01520102  RH  072%=      5-min Rain = 0
KAI1 181416Z 19013KT 15/10 A2981 RMK A01 T01520102  RH  072%=      5-min Rain = 0
KAI1 181417Z 20012KT 15/10 A2981 RMK A01 T01520102  RH  072%=      5-min Rain = 0
KAI1 181418Z 19011KT 15/10 A2981 RMK A01 T01530102  RH  072%=      5-min Rain = 0
KAI1 181419Z 20012KT 15/10 A2981 RMK A01 T01530103  RH  072%=      5-min Rain = 0
KAI1 181420Z 20014KT 15/10 A2981 RMK A01 T01540102  RH  071%=      5-min Rain = 0
KAI1 181421Z 20012KT 15/10 A2981 RMK A01 T01540102  RH  071%=      5-min Rain = 0
KAI1 181422Z 20013KT 16/10 A2981 RMK A01 T01550102  RH  071%=      5-min Rain = 0
KAI1 181423Z 20013KT 16/10 A2981 RMK A01 T01550102  RH  070%=      5-min Rain = 0
KAI1 181424Z 20013KT 16/10 A2981 RMK A01 T01550102  RH  070%=      5-min Rain = 0
KAI1 181425Z 19013KT 16/10 A2981 RMK A01 T01550102  RH  070%=      5-min Rain = 0
KAI1 181426Z 19013KT 16/10 A2981 RMK A01 T01560102  RH  070%=      5-min Rain = 0
KAI1 181427Z 19010KT 16/10 A2981 RMK A01 T01570102  RH  070%=      5-min Rain = 0
KAI1 181428Z 19012KT 16/10 A2981 RMK A01 T01580103  RH  070%=      5-min Rain = 0
KAI1 181429Z 20015KT 16/10 A2981 RMK A01 T01600102  RH  069%=      5-min Rain = 0
KAI1 181430Z 19015KT 16/10 A2981 RMK A01 T01590102  RH  069%=      5-min Rain = 0
KAI1 181431Z 20016KT 16/10 A2981 RMK A01 T01590102  RH  069%=      5-min Rain = 0
KAI1 181432Z 19013KT 16/10 A2981 RMK A01 T01590102  RH  069%=      5-min Rain = 0
KAI1 181433Z 19012KT 16/10 A2981 RMK A01 T01590102  RH  069%=      5-min Rain = 0
KAI1 181434Z 19014KT 16/10 A2981 RMK A01 T01600102  RH  068%=      5-min Rain = 0
KAI1 181435Z 19012KT 16/10 A2981 RMK A01 T01600102  RH  068%=      5-min Rain = 0
KAI1 181436Z 20010KT 16/10 A2981 RMK A01 T01600102  RH  068%=      5-min Rain = 0
KAI1 181437Z 19011KT 16/10 A2981 RMK A01 T01620103  RH  068%=      5-min Rain = 0
KAI1 181438Z 19014KT 16/10 A2981 RMK A01 T01630103  RH  067%=      5-min Rain = 0
KAI1 181439Z 20013KT 16/10 A2981 RMK A01 T01630103  RH  067%=      5-min Rain = 0
KAI1 181440Z 19014KT 16/10 A2981 RMK A01 T01630102  RH  067%=      5-min Rain = 0
KAI1 181441Z 20013KT 16/10 A2981 RMK A01 T01630102  RH  067%=      5-min Rain = 0
KAI1 181442Z 20012KT 16/10 A2981 RMK A01 T01630102  RH  067%=      5-min Rain = 0
KAI1 181443Z 20010KT 16/10 A2981 RMK A01 T01640103  RH  067%=      5-min Rain = 0
KAI1 181444Z 19011KT 17/10 A2981 RMK A01 T01660103  RH  067%=      5-min Rain = 0
KAI1 181445Z 19011KT 17/10 A2981 RMK A01 T01660103  RH  066%=      5-min Rain = 0
KAI1 181446Z 20014KT 17/10 A2981 RMK A01 T01670103  RH  066%=      5-min Rain = 0
KAI1 181447Z 20013KT 17/10 A2981 RMK A01 T01670103  RH  066%=      5-min Rain = 0
KAI1 181448Z 19011KT 17/10 A2981 RMK A01 T01670102  RH  066%=      5-min Rain = 0
KAI1 181449Z 20013KT 17/10 A2981 RMK A01 T01680103  RH  065%=      5-min Rain = 0
KAI1 181450Z 20015KT 17/10 A2981 RMK A01 T01680102  RH  065%=      5-min Rain = 0
KAI1 181451Z 20014KT 17/10 A298 RMK A01 T01680102  RH  065%=      5-min Rain = 0
KAI1 181452Z 19012KT 17/10 A2981 RMK A01 T01680102  RH  065%=      5-min Rain = 0
KAI1 181453Z 19011KT 17/10 A2981 RMK A01 T01690103  RH  065%=      5-min Rain = 0
KAI1 181454Z 19014KT 17/10 A2981 RMK A01 T01710103  RH  064%=      5-min Rain = 0
KAI1 181455Z 19013KT 17/10 A2981 RMK A01 T01720103  RH  064%=      5-min Rain = 0
KAI1 181456Z 20012KT 17/10 A2981 RMK A01 T01720103  RH  064%=      5-min Rain = 0
KAI1 181457Z 20011KT 17/10 A2981 RMK A01 T01720103  RH  064%=      5-min Rain = 0
KAI1 181458Z 20010KT 17/10 A2981 RMK A01 T01740104  RH  064%=      5-min Rain = 0
KAI1 181459Z 20013KT 18/10 A2981 RMK A01 T01750103  RH  063%=      5-min Rain = 0
KAI1 181500Z 21016KT 17/10 A2981 RMK A01 T01740103  RH  063%=      5-min Rain = 0
KAI1 181501Z 21015KT 17/10 A298 RMK A01 T01730102  RH  063%=      5-min Rain = 0
KAI1 181502Z 21013KT 17/10 A298 RMK A01 T01730103  RH  064%=      5-min Rain = 0
KAI1 181503Z 21011KT 17/10 A298 RMK A01 T01730104  RH  064%=      5-min Rain = 0
KAI1 181504Z 20012G17KT 18/10 A298 RMK A01 T01760104  RH  063%=      5-min Rain = 0
KAI1 181505Z 20013KT 18/10 A298 RMK A01 T01770104  RH  062%=      5-min Rain = 0
KAI1 181506Z 20013KT 18/10 A298 RMK A01 T01770104  RH  062%=      5-min Rain = 0
KAI1 181507Z 19014KT 18/10 A298 RMK A01 T01780103  RH  062%=      5-min Rain = 0
KAI1 181508Z 19015KT 18/10 A298 RMK A01 T01770103  RH  062%=      5-min Rain = 0
KAI1 181509Z 19014KT 18/10 A298 RMK A01 T01770103  RH  062%=      5-min Rain = 0
KAI1 181510Z 19014KT 18/10 A298 RMK A01 T01760103  RH  062%=      5-min Rain = 0
KAI1 181511Z 19012KT 18/10 A298 RMK A01 T01770103  RH  062%=      5-min Rain = 0
KAI1 181512Z 20012KT 18/10 A298 RMK A01 T01780104  RH  062%=      5-min Rain = 0
KAI1 181513Z 20013KT 18/10 A298 RMK A01 T01790103  RH  061%=      5-min Rain = 0
KAI1 181514Z 20012KT 18/10 A298 RMK A01 T01790103  RH  061%=      5-min Rain = 0
KAI1 181515Z 20011KT 18/10 A298 RMK A01 T01780103  RH  062%=      5-min Rain = 0
KAI1 181516Z 21014KT 18/10 A298 RMK A01 T01790104  RH  062%=      5-min Rain = 0
KAI1 181517Z 20015KT 18/10 A298 RMK A01 T01800103  RH  060%=      5-min Rain = 0
KAI1 181518Z 20013KT 18/10 A298 RMK A01 T01800102  RH  061%=      5-min Rain = 0
KAI1 181519Z 21012KT 18/10 A298 RMK A01 T01800103  RH  061%=      5-min Rain = 0
KAI1 181520Z 21011KT 18/10 A298 RMK A01 T01800104  RH  061%=      5-min Rain = 0
KAI1 181521Z 20013KT 18/10 A298 RMK A01 T01800104  RH  061%=      5-min Rain = 0
KAI1 181522Z 20011KT 18/10 A298 RMK A01 T01810104  RH  061%=      5-min Rain = 0
KAI1 181523Z 21013KT 18/10 A298 RMK A01 T01810104  RH  061%=      5-min Rain = 0
KAI1 181524Z 21011KT 18/10 A298 RMK A01 T01810104  RH  061%=      5-min Rain = 0
KAI1 181525Z 21011KT 18/10 A298 RMK A01 T01820104  RH  061%=      5-min Rain = 0
KAI1 181526Z 20011KT 18/11 A298 RMK A01 T01830105  RH  060%=      5-min Rain = 0
KAI1 181527Z 20010KT 18/11 A298 RMK A01 T01840105  RH  060%=      5-min Rain = 0
KAI1 181528Z 21011KT 19/11 A298 RMK A01 T01860106  RH  060%=      5-min Rain = 0
KAI1 181529Z 21012KT 19/10 A298 RMK A01 T01860104  RH  059%=      5-min Rain = 0
KAI1 181530Z 21012KT 19/11 A298 RMK A01 T01860105  RH  059%=      5-min Rain = 0
KAI1 181531Z 20014KT 19/10 A298 RMK A01 T01860104  RH  059%=      5-min Rain = 0
KAI1 181532Z 20012KT 19/10 A298 RMK A01 T01870104  RH  059%=      5-min Rain = 0
KAI1 181533Z 20012KT 19/11 A298 RMK A01 T01860105  RH  059%=      5-min Rain = 0
KAI1 181534Z 20012KT 19/11 A298 RMK A01 T01870105  RH  059%=      5-min Rain = 0
KAI1 181535Z 21012KT 19/11 A298 RMK A01 T01880105  RH  058%=      5-min Rain = 0
KAI1 181536Z 21013KT 19/10 A298 RMK A01 T01880104  RH  058%=      5-min Rain = 0
KAI1 181537Z 22010KT 19/10 A298 RMK A01 T01880104  RH  058%=      5-min Rain = 0
KAI1 181538Z 22010KT 19/11 A298 RMK A01 T01880105  RH  059%=      5-min Rain = 0
KAI1 181539Z 22010KT 19/11 A298 RMK A01 T01880105  RH  058%=      5-min Rain = 0
KAI1 181540Z 21012KT 19/11 A298 RMK A01 T01900106  RH  058%=      5-min Rain = 0
KAI1 181541Z 20011KT 19/11 A298 RMK A01 T01910105  RH  057%=      5-min Rain = 0
KAI1 181542Z 20013KT 19/11 A298 RMK A01 T01920105  RH  057%=      5-min Rain = 0
KAI1 181543Z 21012KT 19/11 A298 RMK A01 T01920105  RH  057%=      5-min Rain = 0
KAI1 181544Z 21011KT 19/11 A298 RMK A01 T01930106  RH  057%=      5-min Rain = 0
KAI1 181545Z 20012KT 20/11 A298 RMK A01 T01950106  RH  057%=      5-min Rain = 0
KAI1 181546Z 21013KT 20/11 A298 RMK A01 T01950105  RH  056%=      5-min Rain = 0
KAI1 181547Z 21011KT 19/11 A298 RMK A01 T01940106  RH  057%=      5-min Rain = 0
KAI1 181548Z 20012KT 19/11 A298 RMK A01 T01940106  RH  057%=      5-min Rain = 0
KAI1 181549Z 20014KT 20/11 A298 RMK A01 T01950105  RH  056%=      5-min Rain = 0
KAI1 181550Z 21012KT 20/11 A298 RMK A01 T01950105  RH  056%=      5-min Rain = 0
KAI1 181551Z 21012KT 20/11 A298 RMK A01 T01960106  RH  056%=      5-min Rain = 0
KAI1 181552Z 20012KT 20/11 A298 RMK A01 T01970106  RH  056%=      5-min Rain = 0
KAI1 181553Z 20013KT 20/11 A298 RMK A01 T01980106  RH  055%=      5-min Rain = 0
KAI1 181554Z 20012KT 20/11 A298 RMK A01 T01980106  RH  055%=      5-min Rain = 0
KAI1 181555Z 19012KT 20/11 A298 RMK A01 T01990106  RH  055%=      5-min Rain = 0
KAI1 181556Z 20012KT 20/11 A298 RMK A01 T01990107  RH  055%=      5-min Rain = 0
KAI1 181557Z 21014KT 20/11 A298 RMK A01 T02000107  RH  055%=      5-min Rain = 0
KAI1 181558Z 22013KT 20/11 A298 RMK A01 T02020108  RH  055%=      5-min Rain = 0
KAI1 181559Z 21014KT 20/11 A2979 RMK A01 T02040108  RH  054%=      5-min Rain = 0
KAI1 181600Z 20013KT 21/11 A2979 RMK A01 T02060108  RH  053%=      5-min Rain = 0
KAI1 181601Z 19015KT 21/11 A2979 RMK A01 T02060107  RH  053%=      5-min Rain = 0
KAI1 181602Z 20013KT 21/11 A2979 RMK A01 T02050106  RH  053%=      5-min Rain = 0
KAI1 181603Z 20012KT 20/11 A298 RMK A01 T02030107  RH  054%=      5-min Rain = 0
KAI1 181604Z 21011KT 20/11 A2979 RMK A01 T02010106  RH  054%=      5-min Rain = 0
KAI1 181605Z 21015KT 20/11 A2979 RMK A01 T01990106  RH  055%=      5-min Rain = 0
KAI1 181606Z 22013KT 20/11 A2979 RMK A01 T01990106  RH  055%=      5-min Rain = 0
KAI1 181607Z 21012KT 20/11 A2979 RMK A01 T02000106  RH  054%=      5-min Rain = 0
KAI1 181608Z 21009KT 20/11 A2979 RMK A01 T02030109  RH  055%=      5-min Rain = 0
KAI1 181609Z 21011KT 21/11 A2979 RMK A01 T02060108  RH  053%=      5-min Rain = 0
KAI1 181610Z 21011KT 21/11 A2979 RMK A01 T02070108  RH  053%=      5-min Rain = 0
KAI1 181611Z 19013KT 21/11 A2979 RMK A01 T02070108  RH  053%=      5-min Rain = 0
KAI1 181612Z 19010KT 21/11 A2979 RMK A01 T02060107  RH  053%=      5-min Rain = 0
KAI1 181613Z 19012KT 20/11 A2979 RMK A01 T02040107  RH  054%=      5-min Rain = 0
KAI1 181614Z 21011KT 20/11 A2979 RMK A01 T02030107  RH  054%=      5-min Rain = 0
KAI1 181615Z 21013KT 20/11 A2979 RMK A01 T02020107  RH  054%=      5-min Rain = 0
KAI1 181616Z 22012KT 20/11 A2979 RMK A01 T02030107  RH  054%=      5-min Rain = 0
KAI1 181617Z 21011KT 21/11 A2979 RMK A01 T02060109  RH  054%=      5-min Rain = 0
KAI1 181618Z 21012KT 21/11 A2979 RMK A01 T02090109  RH  053%=      5-min Rain = 0
KAI1 181619Z 21012KT 21/11 A2979 RMK A01 T02090108  RH  052%=      5-min Rain = 0
KAI1 181620Z 22014KT 21/11 A2979 RMK A01 T02080107  RH  052%=      5-min Rain = 0
KAI1 181621Z 22014KT 21/11 A2979 RMK A01 T02060107  RH  053%=      5-min Rain = 0
KAI1 181622Z 21016KT 21/11 A2979 RMK A01 T02050107  RH  053%=      5-min Rain = 0
KAI1 181623Z 21014KT 20/11 A2979 RMK A01 T02030106  RH  053%=      5-min Rain = 0
KAI1 181624Z 21014KT 20/11 A2979 RMK A01 T02020106  RH  054%=      5-min Rain = 0
KAI1 181625Z 21014KT 20/11 A2979 RMK A01 T02020106  RH  054%=      5-min Rain = 0
KAI1 181626Z 21015KT 20/11 A2979 RMK A01 T02030107  RH  054%=      5-min Rain = 0
KAI1 181627Z 22014KT 20/11 A2979 RMK A01 T02020107  RH  054%=      5-min Rain = 0
KAI1 181628Z 21016KT 20/11 A2979 RMK A01 T02020107  RH  054%=      5-min Rain = 0
KAI1 181629Z 21014KT 20/11 A2979 RMK A01 T02040107  RH  054%=      5-min Rain = 0
KAI1 181630Z 21016KT 21/11 A2979 RMK A01 T02050106  RH  053%=      5-min Rain = 0
KAI1 181631Z 21014KT 20/11 A2979 RMK A01 T02040106  RH  053%=      5-min Rain = 0
KAI1 181632Z 21012KT 20/11 A2979 RMK A01 T02020107  RH  054%=      5-min Rain = 0
KAI1 181633Z 21012KT 20/11 A2979 RMK A01 T02030107  RH  054%=      5-min Rain = 0
KAI1 181634Z 21014KT 20/11 A2978 RMK A01 T02030107  RH  054%=      5-min Rain = 0
KAI1 181635Z 21016KT 20/11 A2978 RMK A01 T02040107  RH  054%=      5-min Rain = 0
KAI1 181636Z 20014KT 20/11 A2978 RMK A01 T02030106  RH  054%=      5-min Rain = 0
KAI1 181637Z 20011KT 20/11 A2978 RMK A01 T02020107  RH  054%=      5-min Rain = 0
KAI1 181638Z 20012KT 20/11 A2978 RMK A01 T02010107  RH  055%=      5-min Rain = 0
KAI1 181639Z 21011KT 20/11 A2978 RMK A01 T02020107  RH  054%=      5-min Rain = 0
KAI1 181640Z 22012KT 20/11 A2978 RMK A01 T02030108  RH  054%=      5-min Rain = 0
KAI1 181641Z 22012KT 20/11 A2978 RMK A01 T02040108  RH  054%=      5-min Rain = 0
KAI1 181642Z 21011KT 20/11 A2978 RMK A01 T02040112  RH  055%=      5-min Rain = 0
KAI1 181643Z 21013KT 21/11 A2978 RMK A01 T02060112  RH  055%=      5-min Rain = 0
KAI1 181644Z 21011KT 21/11 A2978 RMK A01 T02050109  RH  054%=      5-min Rain = 0
KAI1 181645Z 21011KT 21/11 A2978 RMK A01 T02050110  RH  054%=      5-min Rain = 0
KAI1 181646Z 20013KT 21/11 A2978 RMK A01 T02060109  RH  054%=      5-min Rain = 0
KAI1 181647Z 21011KT 21/11 A2978 RMK A01 T02080110  RH  053%=      5-min Rain = 0
KAI1 181648Z 21012KT 21/11 A2978 RMK A01 T02110110  RH  052%=      5-min Rain = 0
KAI1 181649Z 21011KT 21/11 A2978 RMK A01 T02120109  RH  052%=      5-min Rain = 0
KAI1 181650Z 21010KT 21/11 A2978 RMK A01 T02130109  RH  052%=      5-min Rain = 0
KAI1 181651Z 20010KT 22/11 A2978 RMK A01 T02150112  RH  052%=      5-min Rain = 0
KAI1 181652Z 20011KT 22/11 A2978 RMK A01 T02180112  RH  051%=      5-min Rain = 0
KAI1 181653Z 20010KT 22/11 A2978 RMK A01 T02180109  RH  050%=      5-min Rain = 0
KAI1 181654Z 20010KT 22/11 A2978 RMK A01 T02150110  RH  051%=      5-min Rain = 0
KAI1 181655Z 20011KT 21/11 A2978 RMK A01 T02130109  RH  052%=      5-min Rain = 0
KAI1 181656Z 21013KT 21/11 A2978 RMK A01 T02120110  RH  052%=      5-min Rain = 0
KAI1 181657Z 21012KT 21/11 A2978 RMK A01 T02120109  RH  052%=      5-min Rain = 0
KAI1 181658Z 20012KT 21/11 A2978 RMK A01 T02120109  RH  052%=      5-min Rain = 0
KAI1 181659Z 21011KT 22/11 A2978 RMK A01 T02150111  RH  052%=      5-min Rain = 0
KAI1 181700Z 20012KT 22/11 A2978 RMK A01 T02180111  RH  050%=      5-min Rain = 0
KAI1 181701Z 20011KT 22/11 A2978 RMK A01 T02210112  RH  050%=      5-min Rain = 0
KAI1 181702Z 20012KT 22/11 A2978 RMK A01 T02230112  RH  049%=      5-min Rain = 0
KAI1 181703Z 20012KT 22/11 A2978 RMK A01 T02240112  RH  049%=      5-min Rain = 0
KAI1 181704Z 20012KT 23/11 A2978 RMK A01 T02250113  RH  049%=      5-min Rain = 0
KAI1 181705Z 20015KT 23/11 A2978 RMK A01 T02270112  RH  048%=      5-min Rain = 0
KAI1 181706Z 19014KT 23/11 A2978 RMK A01 T02250111  RH  048%=      5-min Rain = 0
KAI1 181707Z 19014KT 22/11 A2977 RMK A01 T02230111  RH  049%=      5-min Rain = 0
KAI1 181708Z 19014KT 22/11 A2977 RMK A01 T02220110  RH  049%=      5-min Rain = 0
KAI1 181709Z 20013KT 22/11 A2977 RMK A01 T02220110  RH  049%=      5-min Rain = 0
KAI1 181710Z 20013KT 22/11 A2977 RMK A01 T02220110  RH  049%=      5-min Rain = 0
KAI1 181711Z 21012KT 22/11 A2977 RMK A01 T02210110  RH  049%=      5-min Rain = 0
KAI1 181712Z 21011KT 22/11 A2977 RMK A01 T02190110  RH  050%=      5-min Rain = 0
KAI1 181713Z 20012KT 22/11 A2977 RMK A01 T02170109  RH  050%=      5-min Rain = 0
KAI1 181714Z 20011KT 22/11 A2977 RMK A01 T02150109  RH  051%=      5-min Rain = 0
KAI1 181715Z 21010KT 22/11 A2977 RMK A01 T02160111  RH  051%=      5-min Rain = 0
KAI1 181716Z 19012KT 22/11 A2977 RMK A01 T02210113  RH  050%=      5-min Rain = 0
KAI1 181717Z 19013KT 22/11 A2977 RMK A01 T02240112  RH  049%=      5-min Rain = 0
KAI1 181718Z 21014KT 23/11 A2977 RMK A01 T02250112  RH  049%=      5-min Rain = 0
KAI1 181719Z 20014G19KT 23/11 A2977 RMK A01 T02260114  RH  049%=      5-min Rain = 0
KAI1 181720Z 21015KT 23/11 A2977 RMK A01 T02290113  RH  048%=      5-min Rain = 0
KAI1 181721Z 21012KT 23/11 A2977 RMK A01 T02270113  RH  048%=      5-min Rain = 0
KAI1 181722Z 20013KT 23/11 A2977 RMK A01 T02280114  RH  048%=      5-min Rain = 0
KAI1 181723Z 21013KT 23/11 A2977 RMK A01 T02300114  RH  048%=      5-min Rain = 0
KAI1 181724Z 22013KT 23/11 A2977 RMK A01 T02290113  RH  048%=      5-min Rain = 0
KAI1 181725Z 21012KT 23/11 A2977 RMK A01 T02280114  RH  048%=      5-min Rain = 0
KAI1 181726Z 20011KT 23/11 A2977 RMK A01 T02290113  RH  048%=      5-min Rain = 0
KAI1 181727Z 21011KT 23/11 A2977 RMK A01 T02290113  RH  048%=      5-min Rain = 0
KAI1 181728Z 19013G19KT 23/11 A2977 RMK A01 T02300114  RH  048%=      5-min Rain = 0
KAI1 181729Z 20018KT 23/12 A2976 RMK A01 T02320115  RH  048%=      5-min Rain = 0
KAI1 181730Z 20017KT 23/12 A2976 RMK A01 T02340115  RH  047%=      5-min Rain = 0
KAI1 181731Z 21014KT 24/12 A2976 RMK A01 T02350115  RH  047%=      5-min Rain = 0
KAI1 181732Z 19013KT 24/12 A2976 RMK A01 T02350115  RH  047%=      5-min Rain = 0
KAI1 181733Z 20012KT 24/12 A2976 RMK A01 T02360116  RH  047%=      5-min Rain = 0
KAI1 181734Z 21013KT 24/12 A2976 RMK A01 T02400117  RH  046%=      5-min Rain = 0
KAI1 181735Z 20014KT 24/12 A2976 RMK A01 T02430118  RH  046%=      5-min Rain = 0
KAI1 181736Z 19014KT 24/12 A2976 RMK A01 T02430116  RH  045%=      5-min Rain = 0
KAI1 181737Z 19013KT 24/12 A2976 RMK A01 T02430116  RH  045%=      5-min Rain = 0
KAI1 181738Z 20012KT 24/12 A2976 RMK A01 T02410117  RH  046%=      5-min Rain = 0
KAI1 181739Z 21011KT 24/12 A2976 RMK A01 T02440118  RH  045%=      5-min Rain = 0
KAI1 181740Z 21011KT 25/12 A2976 RMK A01 T02470120  RH  045%=      5-min Rain = 0
KAI1 181741Z 22014KT 25/12 A2976 RMK A01 T02480117  RH  044%=      5-min Rain = 0
KAI1 181742Z 21015KT 25/12 A2976 RMK A01 T02470118  RH  044%=      5-min Rain = 0
KAI1 181743Z 21014KT 24/12 A2976 RMK A01 T02440115  RH  044%=      5-min Rain = 0
KAI1 181744Z 21011KT 24/12 A2976 RMK A01 T02410116  RH  045%=      5-min Rain = 0
KAI1 181745Z 23013KT 24/12 A2976 RMK A01 T02430117  RH  045%=      5-min Rain = 0
KAI1 181746Z 23012KT 24/12 A2976 RMK A01 T02440116  RH  045%=      5-min Rain = 0
KAI1 181747Z 23012KT 24/12 A2976 RMK A01 T02410115  RH  045%=      5-min Rain = 0
KAI1 181748Z 22010KT 24/12 A2976 RMK A01 T02380115  RH  046%=      5-min Rain = 0
KAI1 181749Z 19012KT 24/12 A2975 RMK A01 T02380116  RH  046%=      5-min Rain = 0
KAI1 181750Z 21013KT 24/12 A2975 RMK A01 T02410117  RH  046%=      5-min Rain = 0
KAI1 181751Z 20012KT 24/12 A2975 RMK A01 T02430117  RH  045%=      5-min Rain = 0
KAI1 181752Z 19012KT 24/12 A2975 RMK A01 T02440117  RH  045%=      5-min Rain = 0
KAI1 181753Z 20011KT 24/12 A2975 RMK A01 T02440116  RH  045%=      5-min Rain = 0
KAI1 181754Z 23013KT 24/12 A2975 RMK A01 T02440117  RH  045%=      5-min Rain = 0
KAI1 181755Z 22014KT 25/12 A2975 RMK A01 T02450117  RH  044%=      5-min Rain = 0
KAI1 181756Z 21013KT 24/12 A2975 RMK A01 T02440117  RH  045%=      5-min Rain = 0
KAI1 181757Z 21014KT 25/12 A2975 RMK A01 T02450118  RH  045%=      5-min Rain = 0
KAI1 181758Z 22015KT 25/12 A2975 RMK A01 T02480118  RH  044%=      5-min Rain = 0
KAI1 181759Z 21013KT 25/12 A2975 RMK A01 T02480118  RH  044%=      5-min Rain = 0
KAI1 181800Z 21011G18KT 25/12 A2975 RMK A01 T02490119  RH  044%=      5-min Rain = 0
KAI1 181801Z 21014KT 25/12 A2975 RMK A01 T02520120  RH  044%=      5-min Rain = 0
KAI1 181802Z 22013KT 25/12 A2975 RMK A01 T02520118  RH  043%=      5-min Rain = 0
KAI1 181803Z 20015KT 25/12 A2975 RMK A01 T02520120  RH  044%=      5-min Rain = 0
KAI1 181804Z 20015KT 25/12 A2975 RMK A01 T02530119  RH  043%=      5-min Rain = 0
KAI1 181805Z 20014KT 25/12 A2975 RMK A01 T02500118  RH  044%=      5-min Rain = 0
KAI1 181806Z 20014G19KT 25/12 A2974 RMK A01 T02500118  RH  044%=      5-min Rain = 0
KAI1 181807Z 19014KT 25/12 A2974 RMK A01 T02500116  RH  043%=      5-min Rain = 0
KAI1 181808Z 21014KT 25/12 A2974 RMK A01 T02480117  RH  044%=      5-min Rain = 0
KAI1 181809Z 23013KT 25/12 A2974 RMK A01 T02490118  RH  044%=      5-min Rain = 0
KAI1 181810Z 22012G17KT 25/12 A2974 RMK A01 T02480117  RH  044%=      5-min Rain = 0
KAI1 181811Z 22015KT 25/12 A2974 RMK A01 T02470118  RH  044%=      5-min Rain = 0
KAI1 181812Z 21013KT 25/12 A2974 RMK A01 T02480118  RH  044%=      5-min Rain = 0
KAI1 181813Z 23014KT 25/12 A2974 RMK A01 T02490118  RH  044%=      5-min Rain = 0
KAI1 181814Z 22010KT 25/12 A2974 RMK A01 T02490118  RH  044%=      5-min Rain = 0
KAI1 181815Z 21016KT 25/12 A2974 RMK A01 T02500119  RH  044%=      5-min Rain = 0
KAI1 181816Z 21015KT 25/12 A2974 RMK A01 T02510117  RH  043%=      5-min Rain = 0
KAI1 181817Z 21012KT 25/12 A2974 RMK A01 T02520118  RH  043%=      5-min Rain = 0
KAI1 181818Z 21012KT 25/12 A2974 RMK A01 T02540120  RH  043%=      5-min Rain = 0
KAI1 181819Z 20012KT 26/12 A2974 RMK A01 T02550119  RH  043%=      5-min Rain = 0
KAI1 181820Z 19008G13KT 26/12 A2974 RMK A01 T02570120  RH  042%=      5-min Rain = 0
KAI1 181821Z 20013KT 26/12 A2974 RMK A01 T02570120  RH  042%=      5-min Rain = 0
KAI1 181822Z 20015KT 26/12 A2974 RMK A01 T02580120  RH  042%=      5-min Rain = 0
KAI1 181823Z 20012G17KT 26/12 A2974 RMK A01 T02580119  RH  042%=      5-min Rain = 0
KAI1 181824Z 20013KT 26/12 A2973 RMK A01 T02570119  RH  042%=      5-min Rain = 0
KAI1 181825Z 19012KT 26/12 A2973 RMK A01 T02570120  RH  043%=      5-min Rain = 0
KAI1 181826Z 20012KT 26/12 A2973 RMK A01 T02580120  RH  042%=      5-min Rain = 0
KAI1 181827Z 22012KT 26/12 A2973 RMK A01 T02600121  RH  042%=      5-min Rain = 0
KAI1 181828Z 21012KT 26/12 A2973 RMK A01 T02640121  RH  041%=      5-min Rain = 0
KAI1 181829Z 21012KT 27/12 A2973 RMK A01 T02660122  RH  041%=      5-min Rain = 0
KAI1 181830Z 21010KT 27/12 A2973 RMK A01 T02670121  RH  040%=      5-min Rain = 0
KAI1 181831Z 20011KT 27/12 A2973 RMK A01 T02650121  RH  041%=      5-min Rain = 0
KAI1 181832Z 19012G19KT 26/12 A2973 RMK A01 T02640121  RH  041%=      5-min Rain = 0
KAI1 181833Z 20016KT 26/12 A2973 RMK A01 T02630119  RH  041%=      5-min Rain = 0
KAI1 181834Z 20015KT 26/12 A2973 RMK A01 T02590118  RH  041%=      5-min Rain = 0
KAI1 181835Z 19013KT 26/12 A2973 RMK A01 T02560118  RH  042%=      5-min Rain = 0
KAI1 181836Z 20011KT 25/12 A2973 RMK A01 T02540118  RH  043%=      5-min Rain = 0
KAI1 181837Z 20013KT 25/12 A2973 RMK A01 T02520118  RH  043%=      5-min Rain = 0
KAI1 181838Z 21011KT 25/12 A2973 RMK A01 T02520118  RH  043%=      5-min Rain = 0
KAI1 181839Z 21011KT 25/12 A2973 RMK A01 T02540121  RH  043%=      5-min Rain = 0
KAI1 181840Z 22008KT 26/12 A2973 RMK A01 T02590121  RH  042%=      5-min Rain = 0
KAI1 181841Z 23010KT 26/12 A2972 RMK A01 T02630122  RH  041%=      5-min Rain = 0
KAI1 181842Z 20013KT 27/12 A2972 RMK A01 T02650121  RH  041%=      5-min Rain = 0
KAI1 181843Z 21013KT 27/12 A2972 RMK A01 T02660120  RH  040%=      5-min Rain = 0
KAI1 181844Z 23011KT 27/12 A2972 RMK A01 T02660120  RH  040%=      5-min Rain = 0
KAI1 181845Z 22012KT 27/12 A2972 RMK A01 T02670121  RH  040%=      5-min Rain = 0
KAI1 181846Z 22014KT 27/12 A2972 RMK A01 T02680121  RH  040%=      5-min Rain = 0
KAI1 181847Z 23014KT 27/12 A2972 RMK A01 T02680120  RH  040%=      5-min Rain = 0
KAI1 181848Z 22016KT 27/12 A2972 RMK A01 T02680119  RH  040%=      5-min Rain = 0
KAI1 181849Z 21014KT 26/12 A2972 RMK A01 T02630117  RH  040%=      5-min Rain = 0
KAI1 181850Z 21015KT 26/12 A2972 RMK A01 T02600118  RH  041%=      5-min Rain = 0
KAI1 181851Z 21013KT 26/12 A2972 RMK A01 T02590119  RH  041%=      5-min Rain = 0
KAI1 181852Z 20011KT 26/12 A2972 RMK A01 T02600120  RH  041%=      5-min Rain = 0
KAI1 181853Z 20010KT 26/12 A2972 RMK A01 T02620120  RH  041%=      5-min Rain = 0
KAI1 181854Z 20013KT 26/12 A2972 RMK A01 T02620119  RH  041%=      5-min Rain = 0
KAI1 181855Z 20013G19KT 26/12 A2972 RMK A01 T02640121  RH  041%=      5-min Rain = 0
KAI1 181856Z 22016KT 27/12 A2971 RMK A01 T02670121  RH  040%=      5-min Rain = 0
KAI1 181857Z 20011KT 27/12 A2971 RMK A01 T02680121  RH  040%=      5-min Rain = 0
KAI1 181858Z 20010KT 27/12 A2971 RMK A01 T02690121  RH  040%=      5-min Rain = 0
KAI1 181859Z 20010KT 27/12 A2971 RMK A01 T02690121  RH  040%=      5-min Rain = 0
KAI1 181900Z 19012KT 27/12 A2971 RMK A01 T02700121  RH  040%=      5-min Rain = 0
KAI1 181901Z 21015KT 27/12 A2971 RMK A01 T02720121  RH  039%=      5-min Rain = 0
KAI1 181902Z 21013KT 27/12 A2971 RMK A01 T02740121  RH  039%=      5-min Rain = 0
KAI1 181903Z 21016KT 27/12 A2971 RMK A01 T02730121  RH  039%=      5-min Rain = 0
KAI1 181904Z 21019G28KT 27/12 A297 RMK A01 T02720121  RH  039%=      5-min Rain = 0
KAI1 181905Z 23015KT 27/12 A2971 RMK A01 T02730120  RH  039%=      5-min Rain = 0
KAI1 181906Z 22013KT 27/12 A2971 RMK A01 T02730121  RH  039%=      5-min Rain = 0
KAI1 181907Z 20013KT 27/12 A2971 RMK A01 T02730121  RH  039%=      5-min Rain = 0
KAI1 181908Z 21012KT 27/12 A297 RMK A01 T02720120  RH  039%=      5-min Rain = 0
KAI1 181909Z 20016KT 27/12 A297 RMK A01 T02720121  RH  039%=      5-min Rain = 0
KAI1 181910Z 21014KT 28/12 A2971 RMK A01 T02750121  RH  038%=      5-min Rain = 0
KAI1 181911Z 20015KT 28/12 A297 RMK A01 T02760121  RH  038%=      5-min Rain = 0
KAI1 181912Z 21015KT 28/12 A297 RMK A01 T02750121  RH  038%=      5-min Rain = 0
KAI1 181913Z 20013KT 27/12 A297 RMK A01 T02740120  RH  038%=      5-min Rain = 0
KAI1 181914Z 22014KT 27/12 A297 RMK A01 T02720121  RH  039%=      5-min Rain = 0
KAI1 181915Z 23014KT 27/12 A297 RMK A01 T02730120  RH  039%=      5-min Rain = 0
KAI1 181916Z 21012KT 27/12 A297 RMK A01 T02740122  RH  039%=      5-min Rain = 0
KAI1 181917Z 20012KT 28/12 A297 RMK A01 T02750121  RH  038%=      5-min Rain = 0
KAI1 181918Z 20009KT 28/12 A297 RMK A01 T02750121  RH  039%=      5-min Rain = 0
KAI1 181919Z 20008KT 28/12 A297 RMK A01 T02750123  RH  039%=      5-min Rain = 0
KAI1 181920Z 21010KT 28/12 A297 RMK A01 T02760122  RH  038%=      5-min Rain = 0
KAI1 181921Z 21009KT 28/12 A297 RMK A01 T02780122  RH  038%=      5-min Rain = 0
KAI1 181922Z 22010KT 28/12 A297 RMK A01 T02780123  RH  038%=      5-min Rain = 0
KAI1 181923Z 23014KT 28/12 A2969 RMK A01 T02780122  RH  038%=      5-min Rain = 0
KAI1 181924Z 23013KT 28/12 A2969 RMK A01 T02780121  RH  038%=      5-min Rain = 0
KAI1 181925Z 22013KT 28/12 A2969 RMK A01 T02780122  RH  038%=      5-min Rain = 0
KAI1 181926Z 20011KT 28/12 A2969 RMK A01 T02770121  RH  038%=      5-min Rain = 0
KAI1 181927Z 20011KT 28/12 A2969 RMK A01 T02760121  RH  038%=      5-min Rain = 0
KAI1 181928Z 21009KT 28/12 A2969 RMK A01 T02760122  RH  038%=      5-min Rain = 0
KAI1 181929Z 20014KT 28/12 A2969 RMK A01 T02780124  RH  038%=      5-min Rain = 0
KAI1 181930Z 21012G17KT 28/12 A2969 RMK A01 T02800121  RH  037%=      5-min Rain = 0
KAI1 181931Z 20008G13KT 28/12 A2969 RMK A01 T02810122  RH  037%=      5-min Rain = 0
KAI1 181932Z 22011KT 28/12 A2969 RMK A01 T02810122  RH  037%=      5-min Rain = 0
KAI1 181933Z 22012KT 28/12 A2969 RMK A01 T02820123  RH  037%=      5-min Rain = 0
KAI1 181934Z 20014KT 28/12 A2968 RMK A01 T02830124  RH  037%=      5-min Rain = 0
KAI1 181935Z 19016KT 29/12 A2968 RMK A01 T02850122  RH  037%=      5-min Rain = 0
KAI1 181936Z 19015KT 28/12 A2968 RMK A01 T02840122  RH  037%=      5-min Rain = 0
KAI1 181937Z 18012KT 28/12 A2968 RMK A01 T02820121  RH  037%=      5-min Rain = 0
KAI1 181938Z 19011KT 28/12 A2968 RMK A01 T02810121  RH  037%=      5-min Rain = 0
KAI1 181939Z 20010G16KT 28/12 A2968 RMK A01 T02810122  RH  037%=      5-min Rain = 0
KAI1 181940Z 20015G20KT 28/12 A2968 RMK A01 T02840123  RH  037%=      5-min Rain = 0
KAI1 181941Z 20013KT 29/12 A2968 RMK A01 T02850123  RH  037%=      5-min Rain = 0
KAI1 181942Z 21010KT 29/12 A2968 RMK A01 T02860123  RH  037%=      5-min Rain = 0
KAI1 181943Z 22010KT 29/12 A2968 RMK A01 T02870123  RH  036%=      5-min Rain = 0
KAI1 181944Z 21007KT 29/12 A2968 RMK A01 T02860122  RH  036%=      5-min Rain = 0
KAI1 181945Z 21012KT 28/12 A2967 RMK A01 T02840123  RH  037%=      5-min Rain = 0
KAI1 181946Z 20016KT 29/12 A2967 RMK A01 T02860122  RH  036%=      5-min Rain = 0
KAI1 181947Z 20019KT 29/12 A2967 RMK A01 T02880121  RH  036%=      5-min Rain = 0
KAI1 181948Z 20014KT 29/12 A2967 RMK A01 T02890122  RH  036%=      5-min Rain = 0
KAI1 181949Z 20018KT 29/12 A2967 RMK A01 T02890122  RH  036%=      5-min Rain = 0
KAI1 181950Z 22015KT 29/12 A2967 RMK A01 T02890120  RH  035%=      5-min Rain = 0
KAI1 181951Z 21015KT 29/12 A2967 RMK A01 T02890120  RH  035%=      5-min Rain = 0
KAI1 181952Z 20017KT 29/12 A2967 RMK A01 T02890120  RH  035%=      5-min Rain = 0
KAI1 181953Z 20015KT 29/12 A2967 RMK A01 T02890121  RH  035%=      5-min Rain = 0
KAI1 181954Z 21013KT 29/12 A2967 RMK A01 T02890119  RH  035%=      5-min Rain = 0
KAI1 181955Z 20012KT 29/12 A2967 RMK A01 T02890122  RH  036%=      5-min Rain = 0
KAI1 181956Z 21013KT 29/12 A2966 RMK A01 T02900123  RH  036%=      5-min Rain = 0
KAI1 181957Z 21014KT 29/12 A2966 RMK A01 T02920120  RH  035%=      5-min Rain = 0
KAI1 181958Z 20013KT 29/12 A2966 RMK A01 T02930121  RH  035%=      5-min Rain = 0
KAI1 181959Z 20017KT 30/12 A2966 RMK A01 T02950120  RH  034%=      5-min Rain = 0
KAI1 182000Z 21016KT 30/12 A2966 RMK A01 T02950121  RH  034%=      5-min Rain = 0
KAI1 182001Z 21016KT 29/12 A2966 RMK A01 T02930119  RH  034%=      5-min Rain = 0
KAI1 182002Z 20015KT 29/12 A2966 RMK A01 T02910119  RH  035%=      5-min Rain = 0
KAI1 182003Z 22016KT 29/12 A2966 RMK A01 T02910117  RH  034%=      5-min Rain = 0
KAI1 182004Z 22015KT 29/12 A2966 RMK A01 T02920117  RH  034%=      5-min Rain = 0
KAI1 182005Z 22016KT 29/12 A2966 RMK A01 T02940117  RH  034%=      5-min Rain = 0
KAI1 182006Z 22012KT 29/12 A2966 RMK A01 T02930116  RH  033%=      5-min Rain = 0
KAI1 182007Z 21011KT 29/12 A2966 RMK A01 T02930118  RH  034%=      5-min Rain = 0
KAI1 182008Z 19013KT 29/12 A2966 RMK A01 T02940117  RH  034%=      5-min Rain = 0
KAI1 182009Z 19014KT 29/12 A2966 RMK A01 T02940116  RH  033%=      5-min Rain = 0
KAI1 182010Z 21016G21KT 29/12 A2966 RMK A01 T02940117  RH  034%=      5-min Rain = 0
KAI1 182011Z 22013KT 30/12 A2966 RMK A01 T02960115  RH  033%=      5-min Rain = 0
KAI1 182012Z 20011KT 30/12 A2965 RMK A01 T02960116  RH  033%=      5-min Rain = 0
KAI1 182013Z 20010G15KT 30/11 A2965 RMK A01 T02990114  RH  032%=      5-min Rain = 0
KAI1 182014Z 20013G18KT 30/12 A2965 RMK A01 T03030119  RH  032%=      5-min Rain = 0
KAI1 182015Z 19013KT 30/12 A2965 RMK A01 T03040116  RH  031%=      5-min Rain = 0
KAI1 182016Z 19015G20KT 30/12 A2965 RMK A01 T03030117  RH  032%=      5-min Rain = 0
KAI1 182017Z 20019KT 30/11 A2965 RMK A01 T03030107  RH  030%=      5-min Rain = 0
KAI1 182018Z 19021KT 30/10 A2965 RMK A01 T03040104  RH  029%=      5-min Rain = 0
KAI1 182019Z 19020KT 30/10 A2965 RMK A01 T03010101  RH  029%=      5-min Rain = 0
KAI1 182020Z 21018KT 30/10 A2965 RMK A01 T02980101  RH  030%=      5-min Rain = 0
KAI1 182021Z 20019KT 29/10 A2965 RMK A01 T02940098  RH  030%=      5-min Rain = 0
KAI1 182022Z 20016G21KT 29/10 A2965 RMK A01 T02910097  RH  030%=      5-min Rain = 0
KAI1 182023Z 20017KT 29/10 A2965 RMK A01 T02900097  RH  030%=      5-min Rain = 0
KAI1 182024Z 20014G21KT 29/10 A2965 RMK A01 T02920097  RH  030%=      5-min Rain = 0
KAI1 182025Z 21020G29KT 30/10 A2964 RMK A01 T02960098  RH  029%=      5-min Rain = 0
KAI1 182026Z 21022G27KT 30/10 A2964 RMK A01 T03000096  RH  028%=      5-min Rain = 0
KAI1 182027Z 21019KT 30/10 A2964 RMK A01 T03020098  RH  028%=      5-min Rain = 0
KAI1 182028Z 21017G23KT 30/10 A2965 RMK A01 T03040099  RH  028%=      5-min Rain = 0
KAI1 182029Z 21020KT 30/10 A2964 RMK A01 T03040098  RH  028%=      5-min Rain = 0
KAI1 182030Z 21017KT 30/10 A2964 RMK A01 T03020097  RH  028%=      5-min Rain = 0
KAI1 182031Z 20015G20KT 30/10 A2964 RMK A01 T03020097  RH  028%=      5-min Rain = 0
KAI1 182032Z 20015G21KT 31/10 A2964 RMK A01 T03050099  RH  028%=      5-min Rain = 0
KAI1 182033Z 20017G22KT 31/10 A2964 RMK A01 T03080099  RH  027%=      5-min Rain = 0
KAI1 182034Z 22017KT 31/10 A2964 RMK A01 T03080100  RH  028%=      5-min Rain = 0
KAI1 182035Z 21016KT 30/10 A2965 RMK A01 T03040098  RH  028%=      5-min Rain = 0
KAI1 182036Z 21018KT 30/10 A2965 RMK A01 T02990097  RH  029%=      5-min Rain = 0
KAI1 182037Z 20015KT 30/10 A2965 RMK A01 T02950097  RH  029%=      5-min Rain = 0
KAI1 182038Z 22013KT 30/10 A2964 RMK A01 T02950100  RH  030%=      5-min Rain = 0
KAI1 182039Z 21015KT 30/10 A2964 RMK A01 T02990101  RH  029%=      5-min Rain = 0
KAI1 182040Z 20014KT 30/10 A2964 RMK A01 T03020101  RH  029%=      5-min Rain = 0
KAI1 182041Z 22016KT 31/10 A2964 RMK A01 T03050102  RH  029%=      5-min Rain = 0
KAI1 182042Z 23013KT 31/10 A2964 RMK A01 T03070102  RH  028%=      5-min Rain = 0
KAI1 182043Z 23021G26KT 31/10 A2964 RMK A01 T03090099  RH  027%=      5-min Rain = 0
KAI1 182044Z 23022KT 31/10 A2964 RMK A01 T03060095  RH  027%=      5-min Rain = 0
KAI1 182045Z 23021KT 30/10 A2964 RMK A01 T03030095  RH  027%=      5-min Rain = 0
KAI1 182046Z 22020G25KT 30/10 A2964 RMK A01 T03020095  RH  028%=      5-min Rain = 0
KAI1 182047Z 23020KT 30/09 A2964 RMK A01 T03030094  RH  027%=      5-min Rain = 0
KAI1 182048Z 23019KT 30/09 A2965 RMK A01 T03010092  RH  027%=      5-min Rain = 0
KAI1 182049Z 22017KT 30/09 A2965 RMK A01 T03000094  RH  028%=      5-min Rain = 0
KAI1 182050Z 23014G19KT 30/09 A2964 RMK A01 T03000094  RH  028%=      5-min Rain = 0
KAI1 182051Z 22018KT 30/09 A2965 RMK A01 T03000094  RH  028%=      5-min Rain = 0
KAI1 182052Z 22018KT 30/09 A2964 RMK A01 T03010091  RH  027%=      5-min Rain = 0
KAI1 182053Z 21018KT 30/09 A2964 RMK A01 T03010090  RH  027%=      5-min Rain = 0
KAI1 182054Z 22013KT 30/09 A2964 RMK A01 T03010091  RH  027%=      5-min Rain = 0
KAI1 182055Z 22014G19KT 30/09 A2965 RMK A01 T03030092  RH  027%=      5-min Rain = 0
KAI1 182056Z 22017KT 31/09 A2964 RMK A01 T03060086  RH  025%=      5-min Rain = 0
KAI1 182057Z 22018KT 31/08 A2964 RMK A01 T03060083  RH  025%=      5-min Rain = 0
KAI1 182058Z 23012KT 30/08 A2964 RMK A01 T03030081  RH  025%=      5-min Rain = 0
KAI1 182059Z 23016G21KT 30/08 A2964 RMK A01 T03020082  RH  025%=      5-min Rain = 0
KAI1 182100Z 22020KT 30/08 A2964 RMK A01 T03020077  RH  024%=      5-min Rain = 0
KAI1 182101Z 23017KT 30/07 A2964 RMK A01 T03020073  RH  024%=      5-min Rain = 0
KAI1 182102Z 23017KT 30/07 A2964 RMK A01 T03020072  RH  024%=      5-min Rain = 0
KAI1 182103Z 22017KT 30/07 A2964 RMK A01 T03020074  RH  024%=      5-min Rain = 0
KAI1 182104Z 22019KT 30/07 A2964 RMK A01 T03020074  RH  024%=      5-min Rain = 0
KAI1 182105Z 22018KT 30/08 A2964 RMK A01 T03000075  RH  024%=      5-min Rain = 0
KAI1 182106Z 23018KT 30/08 A2964 RMK A01 T03020077  RH  024%=      5-min Rain = 0
KAI1 182107Z 23018G24KT 30/07 A2964 RMK A01 T03030074  RH  024%=      5-min Rain = 0
KAI1 182108Z 24016KT 30/07 A2964 RMK A01 T03030074  RH  024%=      5-min Rain = 0
KAI1 182109Z 24018KT 30/07 A2964 RMK A01 T03040072  RH  023%=      5-min Rain = 0
KAI1 182110Z 24018G23KT 30/07 A2964 RMK A01 T03040070  RH  023%=      5-min Rain = 0
KAI1 182111Z 24016KT 30/07 A2964 RMK A01 T03040070  RH  023%=      5-min Rain = 0
KAI1 182112Z 23014KT 31/07 A2964 RMK A01 T03050073  RH  023%=      5-min Rain = 0
KAI1 182113Z 24015G21KT 31/07 A2964 RMK A01 T03070074  RH  023%=      5-min Rain = 0
KAI1 182114Z 24018KT 31/07 A2964 RMK A01 T03080073  RH  023%=      5-min Rain = 0
KAI1 182115Z 23016G25KT 31/07 A2964 RMK A01 T03080074  RH  023%=      5-min Rain = 0
KAI1 182116Z 23021KT 31/07 A2964 RMK A01 T03080069  RH  022%=      5-min Rain = 0
KAI1 182117Z 22015KT 31/07 A2964 RMK A01 T03050069  RH  023%=      5-min Rain = 0
KAI1 182118Z 21015KT 31/07 A2964 RMK A01 T03050068  RH  023%=      5-min Rain = 0
KAI1 182119Z 21016KT 30/07 A2964 RMK A01 T03040067  RH  023%=      5-min Rain = 0
KAI1 182120Z 22014KT 30/07 A2964 RMK A01 T03030068  RH  023%=      5-min Rain = 0
KAI1 182121Z 21014KT 30/07 A2964 RMK A01 T03030069  RH  023%=      5-min Rain = 0
KAI1 182122Z 22018KT 31/07 A2964 RMK A01 T03050068  RH  023%=      5-min Rain = 0
KAI1 182123Z 22017G22KT 31/06 A2964 RMK A01 T03060059  RH  021%=      5-min Rain = 0
KAI1 182124Z 23018KT 31/06 A2964 RMK A01 T03050060  RH  021%=      5-min Rain = 0
KAI1 182125Z 22018KT 30/06 A2964 RMK A01 T03030061  RH  022%=      5-min Rain = 0
KAI1 182126Z 22015KT 30/06 A2964 RMK A01 T03010064  RH  022%=      5-min Rain = 0
KAI1 182127Z 22017KT 30/07 A2964 RMK A01 T03000065  RH  023%=      5-min Rain = 0
KAI1 182128Z 22015KT 30/07 A2964 RMK A01 T02980065  RH  023%=      5-min Rain = 0
KAI1 182129Z 22016KT 30/07 A2964 RMK A01 T02960066  RH  023%=      5-min Rain = 0
KAI1 182130Z 22013KT 30/07 A2964 RMK A01 T02960065  RH  023%=      5-min Rain = 0
KAI1 182131Z 22017KT 30/07 A2964 RMK A01 T02980066  RH  023%=      5-min Rain = 0
KAI1 182132Z 21015KT 30/07 A2964 RMK A01 T02990065  RH  023%=      5-min Rain = 0
KAI1 182133Z 20014KT 30/07 A2964 RMK A01 T03010066  RH  023%=      5-min Rain = 0
KAI1 182134Z 22015KT 30/06 A2964 RMK A01 T03010064  RH  023%=      5-min Rain = 0
KAI1 182135Z 22011KT 30/07 A2964 RMK A01 T03020065  RH  023%=      5-min Rain = 0
KAI1 182136Z 22009KT 30/07 A2964 RMK A01 T03030067  RH  023%=      5-min Rain = 0
KAI1 182137Z 23010KT 31/07 A2964 RMK A01 T03060068  RH  022%=      5-min Rain = 0
KAI1 182138Z 22012KT 31/07 A2964 RMK A01 T03070066  RH  022%=      5-min Rain = 0
KAI1 182139Z 23019KT 31/06 A2964 RMK A01 T03070062  RH  021%=      5-min Rain = 0
KAI1 182140Z 23020KT 31/06 A2964 RMK A01 T03050059  RH  021%=      5-min Rain = 0
KAI1 182141Z 21020KT 30/05 A2964 RMK A01 T03030053  RH  021%=      5-min Rain = 0
KAI1 182142Z 21020KT 30/05 A2964 RMK A01 T03010052  RH  021%=      5-min Rain = 0
KAI1 182143Z 21019KT 30/05 A2964 RMK A01 T03000052  RH  021%=      5-min Rain = 0
KAI1 182144Z 21018KT 30/05 A2964 RMK A01 T02990051  RH  021%=      5-min Rain = 0
KAI1 182145Z 22016KT 30/05 A2964 RMK A01 T02990051  RH  021%=      5-min Rain = 0
KAI1 182146Z 22020G25KT 30/05 A2964 RMK A01 T02980051  RH  021%=      5-min Rain = 0
KAI1 182147Z 21019KT 30/05 A2964 RMK A01 T02980050  RH  021%=      5-min Rain = 0
KAI1 182148Z 21018KT 30/05 A2964 RMK A01 T02990049  RH  021%=      5-min Rain = 0
KAI1 182149Z 22017KT 30/05 A2964 RMK A01 T03000048  RH  020%=      5-min Rain = 0
KAI1 182150Z 23019KT 30/05 A2964 RMK A01 T03000048  RH  020%=      5-min Rain = 0
KAI1 182151Z 22018KT 30/05 A2964 RMK A01 T02990048  RH  020%=      5-min Rain = 0
KAI1 182152Z 22018KT 30/05 A2964 RMK A01 T02990050  RH  021%=      5-min Rain = 0
KAI1 182153Z 21018KT 30/05 A2964 RMK A01 T02990049  RH  021%=      5-min Rain = 0
KAI1 182154Z 21017KT 30/05 A2964 RMK A01 T02980050  RH  021%=      5-min Rain = 0
KAI1 182155Z 21021KT 30/05 A2964 RMK A01 T02980048  RH  020%=      5-min Rain = 0
KAI1 182156Z 20018KT 30/05 A2964 RMK A01 T02980047  RH  020%=      5-min Rain = 0
KAI1 182157Z 20016KT 30/05 A2964 RMK A01 T02970045  RH  020%=      5-min Rain = 0
KAI1 182158Z 21018KT 30/05 A2964 RMK A01 T02970046  RH  020%=      5-min Rain = 0
KAI1 182159Z 21019KT 30/05 A2964 RMK A01 T02970051  RH  021%=      5-min Rain = 0
KAI1 182200Z 22016KT 30/05 A2964 RMK A01 T02970054  RH  022%=      5-min Rain = 0
KAI1 182201Z 22013KT 30/05 A2964 RMK A01 T02970054  RH  022%=      5-min Rain = 0
KAI1 182202Z 21013G18KT 30/06 A2964 RMK A01 T02980055  RH  022%=      5-min Rain = 0
KAI1 182203Z 21017KT 30/05 A2964 RMK A01 T02990053  RH  021%=      5-min Rain = 0
KAI1 182204Z 22018KT 30/05 A2964 RMK A01 T02990054  RH  021%=      5-min Rain = 0
KAI1 182205Z 22016KT 30/05 A2964 RMK A01 T02980053  RH  021%=      5-min Rain = 0
KAI1 182206Z 21016KT 30/05 A2965 RMK A01 T02960054  RH  022%=      5-min Rain = 0
KAI1 182207Z 23016KT 30/06 A2964 RMK A01 T02950055  RH  022%=      5-min Rain = 0
KAI1 182208Z 23019KT 30/06 A2964 RMK A01 T02950056  RH  022%=      5-min Rain = 0
KAI1 182209Z 22015KT 30/06 A2964 RMK A01 T02950057  RH  022%=      5-min Rain = 0
KAI1 182210Z 23014KT 30/06 A2964 RMK A01 T02960058  RH  022%=      5-min Rain = 0
KAI1 182211Z 23017KT 30/06 A2964 RMK A01 T02970056  RH  022%=      5-min Rain = 0
KAI1 182212Z 22015KT 30/05 A2964 RMK A01 T02960054  RH  022%=      5-min Rain = 0
KAI1 182213Z 23014KT 29/05 A2964 RMK A01 T02940054  RH  022%=      5-min Rain = 0
KAI1 182214Z 23015KT 29/06 A2964 RMK A01 T02940058  RH  023%=      5-min Rain = 0
KAI1 182215Z 22017KT 29/06 A2964 RMK A01 T02940060  RH  023%=      5-min Rain = 0
KAI1 182216Z 21014KT 30/06 A2964 RMK A01 T02950059  RH  023%=      5-min Rain = 0
KAI1 182217Z 22016G21KT 30/06 A2964 RMK A01 T02950061  RH  023%=      5-min Rain = 0
KAI1 182218Z 22015KT 30/06 A2964 RMK A01 T02950060  RH  023%=      5-min Rain = 0
KAI1 182219Z 22017KT 30/06 A2964 RMK A01 T02950059  RH  023%=      5-min Rain = 0
KAI1 182220Z 22016KT 29/06 A2964 RMK A01 T02930057  RH  022%=      5-min Rain = 0
KAI1 182221Z 21016KT 29/06 A2964 RMK A01 T02930058  RH  023%=      5-min Rain = 0
KAI1 182222Z 22016KT 29/06 A2964 RMK A01 T02930059  RH  023%=      5-min Rain = 0
KAI1 182223Z 22016KT 29/06 A2964 RMK A01 T02920059  RH  023%=      5-min Rain = 0
KAI1 182224Z 22014KT 29/06 A2964 RMK A01 T02930060  RH  023%=      5-min Rain = 0
KAI1 182225Z 22015KT 29/06 A2964 RMK A01 T02930062  RH  023%=      5-min Rain = 0
KAI1 182226Z 22017G22KT 29/06 A2964 RMK A01 T02930064  RH  024%=      5-min Rain = 0
KAI1 182227Z 21017G22KT 29/07 A2965 RMK A01 T02930065  RH  024%=      5-min Rain = 0
KAI1 182228Z 21018KT 29/06 A2964 RMK A01 T02920063  RH  024%=      5-min Rain = 0
KAI1 182229Z 23018KT 29/07 A2964 RMK A01 T02910065  RH  024%=      5-min Rain = 0
KAI1 182230Z 22016G21KT 29/06 A2965 RMK A01 T02900064  RH  024%=      5-min Rain = 0
KAI1 182231Z 21017KT 29/06 A2965 RMK A01 T02900063  RH  024%=      5-min Rain = 0
KAI1 182232Z 22017KT 29/06 A2965 RMK A01 T02900060  RH  023%=      5-min Rain = 0
KAI1 182233Z 22018KT 29/06 A2965 RMK A01 T02900060  RH  023%=      5-min Rain = 0
KAI1 182234Z 22018KT 29/06 A2965 RMK A01 T02900059  RH  023%=      5-min Rain = 0
KAI1 182235Z 22014KT 29/06 A2965 RMK A01 T02900060  RH  023%=      5-min Rain = 0
KAI1 182236Z 22017KT 29/06 A2965 RMK A01 T02900060  RH  023%=      5-min Rain = 0
KAI1 182237Z 22018KT 29/06 A2965 RMK A01 T02910062  RH  023%=      5-min Rain = 0
KAI1 182238Z 22017KT 29/06 A2965 RMK A01 T02900062  RH  024%=      5-min Rain = 0
KAI1 182239Z 22015KT 29/06 A2965 RMK A01 T02890062  RH  024%=      5-min Rain = 0
KAI1 182240Z 22014KT 29/06 A2965 RMK A01 T02890063  RH  024%=      5-min Rain = 0
KAI1 182241Z 23014KT 29/06 A2965 RMK A01 T02890064  RH  024%=      5-min Rain = 0
KAI1 182242Z 22016KT 29/06 A2964 RMK A01 T02890064  RH  024%=      5-min Rain = 0
KAI1 182243Z 22015KT 29/07 A2964 RMK A01 T02890065  RH  024%=      5-min Rain = 0
KAI1 182244Z 21016KT 29/07 A2965 RMK A01 T02880067  RH  025%=      5-min Rain = 0
KAI1 182245Z 23013G18KT 29/07 A2965 RMK A01 T02890068  RH  025%=      5-min Rain = 0
KAI1 182246Z 23013KT 29/07 A2965 RMK A01 T02890068  RH  025%=      5-min Rain = 0
KAI1 182247Z 23014KT 29/07 A2965 RMK A01 T02880068  RH  025%=      5-min Rain = 0
KAI1 182248Z 22013KT 29/07 A2965 RMK A01 T02880068  RH  025%=      5-min Rain = 0
KAI1 182249Z 22012KT 29/07 A2965 RMK A01 T02880069  RH  025%=      5-min Rain = 0
KAI1 182250Z 22012KT 29/07 A2965 RMK A01 T02880069  RH  025%=      5-min Rain = 0
KAI1 182251Z 22013KT 29/07 A2965 RMK A01 T02870069  RH  025%=      5-min Rain = 0
KAI1 182252Z 22013KT 29/07 A2965 RMK A01 T02870068  RH  025%=      5-min Rain = 0
KAI1 182253Z 22013KT 29/07 A2965 RMK A01 T02860069  RH  025%=      5-min Rain = 0
KAI1 182254Z 22015KT 29/07 A2965 RMK A01 T02860069  RH  025%=      5-min Rain = 0
KAI1 182255Z 22013KT 29/07 A2965 RMK A01 T02850067  RH  025%=      5-min Rain = 0
KAI1 182256Z 22013KT 28/07 A2965 RMK A01 T02830068  RH  026%=      5-min Rain = 0
KAI1 182257Z 22012KT 28/07 A2965 RMK A01 T02810068  RH  026%=      5-min Rain = 0
KAI1 182258Z 22012KT 28/07 A2965 RMK A01 T02780069  RH  027%=      5-min Rain = 0
KAI1 182259Z 22013KT 28/07 A2965 RMK A01 T02760069  RH  027%=      5-min Rain = 0
KAI1 182300Z 22011KT 28/07 A2965 RMK A01 T02750070  RH  027%=      5-min Rain = 0
KAI1 182301Z 22011KT 28/07 A2965 RMK A01 T02750070  RH  027%=      5-min Rain = 0
KAI1 182302Z 22011KT 28/07 A2965 RMK A01 T02750070  RH  027%=      5-min Rain = 0
KAI1 182303Z 22009KT 28/07 A2965 RMK A01 T02760071  RH  027%=      5-min Rain = 0
KAI1 182304Z 23011KT 28/07 A2965 RMK A01 T02760072  RH  027%=      5-min Rain = 0
KAI1 182305Z 23011KT 28/07 A2965 RMK A01 T02750072  RH  028%=      5-min Rain = 0
KAI1 182306Z 23011KT 28/07 A2965 RMK A01 T02750073  RH  028%=      5-min Rain = 0
KAI1 182307Z 23010KT 28/08 A2965 RMK A01 T02750075  RH  028%=      5-min Rain = 0
KAI1 182308Z 23011KT 28/08 A2965 RMK A01 T02750076  RH  028%=      5-min Rain = 0
KAI1 182309Z 23013KT 28/08 A2965 RMK A01 T02750076  RH  029%=      5-min Rain = 0
KAI1 182310Z 23013KT 28/08 A2965 RMK A01 T02750076  RH  028%=      5-min Rain = 0
KAI1 182311Z 23012KT 28/08 A2965 RMK A01 T02760078  RH  029%=      5-min Rain = 0
KAI1 182312Z 24012KT 28/08 A2965 RMK A01 T02760079  RH  029%=      5-min Rain = 0
KAI1 182313Z 24012KT 28/08 A2965 RMK A01 T02750080  RH  029%=      5-min Rain = 0
KAI1 182314Z 24013KT 28/08 A2965 RMK A01 T02750080  RH  029%=      5-min Rain = 0
KAI1 182315Z 24012KT 27/08 A2965 RMK A01 T02740081  RH  030%=      5-min Rain = 0
KAI1 182316Z 24012KT 27/08 A2965 RMK A01 T02740083  RH  030%=      5-min Rain = 0
KAI1 182317Z 24012KT 27/09 A2965 RMK A01 T02730085  RH  031%=      5-min Rain = 0
KAI1 182318Z 24011KT 27/09 A2965 RMK A01 T02730087  RH  031%=      5-min Rain = 0
KAI1 182319Z 23011KT 27/09 A2965 RMK A01 T02720087  RH  031%=      5-min Rain = 0
KAI1 182320Z 24009KT 27/09 A2965 RMK A01 T02730088  RH  031%=      5-min Rain = 0
KAI1 182321Z 24011KT 27/09 A2965 RMK A01 T02730089  RH  031%=      5-min Rain = 0
KAI1 182322Z 23011KT 27/09 A2965 RMK A01 T02730089  RH  031%=      5-min Rain = 0
KAI1 182323Z 23010KT 27/09 A2965 RMK A01 T02720089  RH  032%=      5-min Rain = 0
KAI1 182324Z 24010KT 27/09 A2965 RMK A01 T02700089  RH  032%=      5-min Rain = 0
KAI1 182325Z 24009KT 27/09 A2965 RMK A01 T02690089  RH  032%=      5-min Rain = 0
KAI1 182326Z 24010KT 27/09 A2965 RMK A01 T02680090  RH  032%=      5-min Rain = 0
KAI1 182327Z 24009KT 27/09 A2966 RMK A01 T02680090  RH  033%=      5-min Rain = 0
KAI1 182328Z 24007KT 27/09 A2966 RMK A01 T02680091  RH  033%=      5-min Rain = 0
KAI1 182329Z 24009KT 27/09 A2966 RMK A01 T02680091  RH  033%=      5-min Rain = 0
KAI1 182330Z 24010KT 27/09 A2966 RMK A01 T02670091  RH  033%=      5-min Rain = 0
KAI1 182331Z 24010KT 27/09 A2966 RMK A01 T02670090  RH  033%=      5-min Rain = 0
KAI1 182332Z 24011KT 27/09 A2966 RMK A01 T02670088  RH  032%=      5-min Rain = 0
KAI1 182333Z 25012KT 27/09 A2966 RMK A01 T02670088  RH  032%=      5-min Rain = 0
KAI1 182334Z 24012KT 27/09 A2966 RMK A01 T02670087  RH  032%=      5-min Rain = 0
KAI1 182335Z 24010KT 27/09 A2966 RMK A01 T02670087  RH  032%=      5-min Rain = 0
KAI1 182336Z 24009KT 27/09 A2966 RMK A01 T02660088  RH  032%=      5-min Rain = 0
KAI1 182337Z 24010KT 27/09 A2966 RMK A01 T02650087  RH  033%=      5-min Rain = 0
KAI1 182338Z 24009KT 26/09 A2966 RMK A01 T02640087  RH  033%=      5-min Rain = 0
KAI1 182339Z 24009KT 26/09 A2966 RMK A01 T02630086  RH  033%=      5-min Rain = 0
KAI1 182340Z 24008KT 26/09 A2966 RMK A01 T02620086  RH  033%=      5-min Rain = 0
KAI1 182341Z 24009KT 26/09 A2966 RMK A01 T02610086  RH  033%=      5-min Rain = 0
KAI1 182342Z 24008KT 26/09 A2966 RMK A01 T02610086  RH  033%=      5-min Rain = 0
KAI1 182343Z 24008KT 26/09 A2966 RMK A01 T02600087  RH  033%=      5-min Rain = 0
KAI1 182344Z 23008KT 26/09 A2966 RMK A01 T02590087  RH  034%=      5-min Rain = 0
KAI1 182345Z 23008KT 26/09 A2966 RMK A01 T02570087  RH  034%=      5-min Rain = 0
KAI1 182346Z 23008KT 26/09 A2966 RMK A01 T02560087  RH  034%=      5-min Rain = 0
KAI1 182347Z 24008KT 25/09 A2966 RMK A01 T02540087  RH  035%=      5-min Rain = 0
KAI1 182348Z 24008KT 25/09 A2966 RMK A01 T02530088  RH  035%=      5-min Rain = 0
KAI1 182349Z 24008KT 25/09 A2966 RMK A01 T02510088  RH  035%=      5-min Rain = 0
KAI1 182350Z 24008KT 25/09 A2966 RMK A01 T02500088  RH  036%=      5-min Rain = 0
KAI1 182351Z 24008KT 25/09 A2966 RMK A01 T02490088  RH  036%=      5-min Rain = 0
KAI1 182352Z 24007KT 25/09 A2966 RMK A01 T02480088  RH  036%=      5-min Rain = 0
KAI1 182353Z 24007KT 25/09 A2966 RMK A01 T02460088  RH  036%=      5-min Rain = 0
KAI1 182354Z 24007KT 25/09 A2966 RMK A01 T02450088  RH  037%=      5-min Rain = 0
KAI1 182355Z 24007KT 24/09 A2966 RMK A01 T02430087  RH  037%=      5-min Rain = 0
KAI1 182356Z 25007KT 24/09 A2966 RMK A01 T02420087  RH  037%=      5-min Rain = 0
KAI1 182357Z 24007KT 24/09 A2966 RMK A01 T02400087  RH  038%=      5-min Rain = 0
KAI1 182358Z 24006KT 24/09 A2966 RMK A01 T02380087  RH  038%=      5-min Rain = 0
KAI1 182359Z 24006KT 24/09 A2966 RMK A01 T02360087  RH  038%=      5-min Rain = 0
KAI1 190000Z 24006KT 24/09 A2966 RMK A01 T02350087  RH  039%=      5-min Rain = 0
KAI1 190001Z 24006KT 23/09 A2966 RMK A01 T02330087  RH  039%=      5-min Rain = 0
KAI1 190002Z 24006KT 23/09 A2966 RMK A01 T02300086  RH  040%=      5-min Rain = 0
KAI1 190003Z 25007KT 23/09 A2966 RMK A01 T02290086  RH  040%=      5-min Rain = 0
KAI1 190004Z 25006KT 23/09 A2966 RMK A01 T02270086  RH  040%=      5-min Rain = 0
KAI1 190005Z 25006KT 23/09 A2966 RMK A01 T02250085  RH  041%=      5-min Rain = 0
KAI1 190006Z 25007KT 22/09 A2966 RMK A01 T02240085  RH  041%=      5-min Rain = 0
KAI1 190007Z 25006KT 22/09 A2966 RMK A01 T02220085  RH  041%=      5-min Rain = 0
KAI1 190008Z 25006KT 22/09 A2966 RMK A01 T02210085  RH  042%=      5-min Rain = 0
KAI1 190009Z 24005KT 22/09 A2966 RMK A01 T02200085  RH  042%=      5-min Rain = 0
KAI1 190010Z 24005KT 22/09 A2966 RMK A01 T02180085  RH  042%=      5-min Rain = 0
KAI1 190011Z 24006KT 22/09 A2966 RMK A01 T02170085  RH  043%=      5-min Rain = 0
KAI1 190012Z 25006KT 22/09 A2966 RMK A01 T02160085  RH  043%=      5-min Rain = 0
KAI1 190013Z 25006KT 22/09 A2966 RMK A01 T02160086  RH  043%=      5-min Rain = 0
KAI1 190014Z 25006KT 22/09 A2966 RMK A01 T02150085  RH  043%=      5-min Rain = 0
KAI1 190015Z 26006KT 21/09 A2966 RMK A01 T02140085  RH  043%=      5-min Rain = 0
KAI1 190016Z 25006KT 21/08 A2966 RMK A01 T02140084  RH  043%=      5-min Rain = 0
KAI1 190017Z 24006KT 21/08 A2966 RMK A01 T02130084  RH  044%=      5-min Rain = 0
KAI1 190018Z 24005KT 21/08 A2966 RMK A01 T02110084  RH  044%=      5-min Rain = 0
KAI1 190019Z 24005KT 21/09 A2966 RMK A01 T02090085  RH  045%=      5-min Rain = 0
KAI1 190020Z 25006KT 21/09 A2966 RMK A01 T02070086  RH  046%=      5-min Rain = 0
KAI1 190021Z 24005KT 21/09 A2966 RMK A01 T02070086  RH  046%=      5-min Rain = 0
KAI1 190022Z 22005KT 21/09 A2966 RMK A01 T02070087  RH  046%=      5-min Rain = 0
KAI1 190023Z 23006KT 21/09 A2966 RMK A01 T02060086  RH  046%=      5-min Rain = 0
KAI1 190024Z 24007KT 20/09 A2966 RMK A01 T02040085  RH  046%=      5-min Rain = 0
KAI1 190025Z 24007KT 20/09 A2966 RMK A01 T02040085  RH  046%=      5-min Rain = 0
KAI1 190026Z 24006KT 20/08 A2966 RMK A01 T02030084  RH  046%=      5-min Rain = 0
KAI1 190027Z 24006KT 20/08 A2966 RMK A01 T02020084  RH  046%=      5-min Rain = 0
KAI1 190028Z 24006KT 20/08 A2966 RMK A01 T02010084  RH  047%=      5-min Rain = 0
KAI1 190029Z 24006KT 20/08 A2966 RMK A01 T02000084  RH  047%=      5-min Rain = 0
KAI1 190030Z 24006KT 20/08 A2966 RMK A01 T01990083  RH  047%=      5-min Rain = 0
KAI1 190031Z 24006KT 20/08 A2966 RMK A01 T01990084  RH  047%=      5-min Rain = 0
KAI1 190032Z 24006KT 20/08 A2966 RMK A01 T01980083  RH  048%=      5-min Rain = 0
KAI1 190033Z 24005KT 20/08 A2966 RMK A01 T01970083  RH  048%=      5-min Rain = 0
KAI1 190034Z 24005KT 20/08 A2966 RMK A01 T01960084  RH  048%=      5-min Rain = 0
KAI1 190035Z 24005KT 20/08 A2966 RMK A01 T01950084  RH  049%=      5-min Rain = 0
KAI1 190036Z 25005KT 19/08 A2966 RMK A01 T01940084  RH  049%=      5-min Rain = 0
KAI1 190037Z 25005KT 19/08 A2966 RMK A01 T01940083  RH  049%=      5-min Rain = 0
KAI1 190038Z 25005KT 19/08 A2966 RMK A01 T01940083  RH  049%=      5-min Rain = 0
KAI1 190039Z 25005KT 19/08 A2966 RMK A01 T01940083  RH  049%=      5-min Rain = 0
KAI1 190040Z 24005KT 19/08 A2966 RMK A01 T01940083  RH  049%=      5-min Rain = 0
KAI1 190041Z 24005KT 19/08 A2966 RMK A01 T01940083  RH  049%=      5-min Rain = 0
KAI1 190042Z 23005KT 19/08 A2966 RMK A01 T01930083  RH  049%=      5-min Rain = 0
KAI1 190043Z 24005KT 19/08 A2966 RMK A01 T01930083  RH  049%=      5-min Rain = 0
KAI1 190044Z 24006KT 19/08 A2966 RMK A01 T01930083  RH  049%=      5-min Rain = 0
KAI1 190045Z 24005KT 19/08 A2966 RMK A01 T01920083  RH  049%=      5-min Rain = 0
KAI1 190046Z 24005KT 19/08 A2966 RMK A01 T01910082  RH  049%=      5-min Rain = 0
KAI1 190047Z 23005KT 19/08 A2966 RMK A01 T01900082  RH  049%=      5-min Rain = 0
KAI1 190048Z 24005KT 19/08 A2967 RMK A01 T01890082  RH  050%=      5-min Rain = 0
KAI1 190049Z 25006KT 19/08 A2967 RMK A01 T01890082  RH  050%=      5-min Rain = 0
KAI1 190050Z 25006KT 19/08 A2967 RMK A01 T01880081  RH  050%=      5-min Rain = 0
KAI1 190051Z 26006KT 19/08 A2967 RMK A01 T01880081  RH  050%=      5-min Rain = 0
KAI1 190052Z 26007KT 19/08 A2967 RMK A01 T01870081  RH  050%=      5-min Rain = 0
KAI1 190053Z 26008KT 19/08 A2967 RMK A01 T01860081  RH  050%=      5-min Rain = 0
KAI1 190054Z 27008KT 19/08 A2967 RMK A01 T01860080  RH  050%=      5-min Rain = 0
KAI1 190055Z 27007KT 19/08 A2967 RMK A01 T01860080  RH  050%=      5-min Rain = 0
KAI1 190056Z 27007KT 19/08 A2967 RMK A01 T01860081  RH  050%=      5-min Rain = 0
KAI1 190057Z 28008KT 19/08 A2967 RMK A01 T01860081  RH  050%=      5-min Rain = 0
KAI1 190058Z 28008KT 19/08 A2967 RMK A01 T01850078  RH  050%=      5-min Rain = 0
KAI1 190059Z 28007KT 19/08 A2967 RMK A01 T01870078  RH  049%=      5-min Rain = 0
KAI1 190100Z 28007KT 19/08 A2967 RMK A01 T01880078  RH  048%=      5-min Rain = 0
KAI1 190101Z 28006KT 19/08 A2967 RMK A01 T01890078  RH  048%=      5-min Rain = 0
KAI1 190102Z 28006KT 19/08 A2967 RMK A01 T01900078  RH  048%=      5-min Rain = 0
KAI1 190103Z 28006KT 19/08 A2967 RMK A01 T01900077  RH  048%=      5-min Rain = 0
KAI1 190104Z 28007KT 19/08 A2967 RMK A01 T01900077  RH  048%=      5-min Rain = 0
KAI1 190105Z 28008KT 19/08 A2968 RMK A01 T01900077  RH  048%=      5-min Rain = 0
KAI1 190106Z 28009KT 19/08 A2968 RMK A01 T01910077  RH  048%=      5-min Rain = 0
KAI1 190107Z 28009KT 19/08 A2968 RMK A01 T01920079  RH  048%=      5-min Rain = 0
KAI1 190108Z 28011KT 19/08 A2969 RMK A01 T01940078  RH  047%=      5-min Rain = 0
KAI1 190109Z 28014G25KT 20/08 A297 RMK A01 T01970077  RH  046%=      5-min Rain = 0
KAI1 190110Z 28020G26KT 20/08 A297 RMK A01 T02030076  RH  044%=      5-min Rain = 0
KAI1 190111Z 28025G33KT 21/08 A297 RMK A01 T02110076  RH  042%=      5-min Rain = 0
KAI1 190112Z 29028G36KT 22/08 A297 RMK A01 T02170075  RH  040%=      5-min Rain = 0
KAI1 190113Z 29023G28KT 22/08 A2971 RMK A01 T02200076  RH  039%=      5-min Rain = 0
KAI1 190114Z 28024G29KT 22/08 A2971 RMK A01 T02210079  RH  040%=      5-min Rain = 0
KAI1 190115Z 27024G32KT 22/09 A2971 RMK A01 T02160094  RH  046%=      5-min Rain = 0
KAI1 190116Z 28026KT 20/10 A2971 RMK A01 T02020104  RH  053%=      5-min Rain = 0.01
KAI1 190117Z 28020KT 19/11 A2972 RMK A01 T01890109  RH  059%=      5-min Rain = 0.01
KAI1 190118Z 28020KT 18/11 A2972 RMK A01 T01820110  RH  063%=      5-min Rain = 0.01
KAI1 190119Z 28018G23KT 18/11 A2972 RMK A01 T01800109  RH  063%=      5-min Rain = 0
KAI1 190120Z 28019KT 18/11 A2973 RMK A01 T01790109  RH  063%=      5-min Rain = 0
KAI1 190121Z 27020KT 18/11 A2973 RMK A01 T01790109  RH  063%=      5-min Rain = 0
KAI1 190122Z 27018KT 18/11 A2973 RMK A01 T01790109  RH  063%=      5-min Rain = 0
KAI1 190123Z 27015KT 18/11 A2973 RMK A01 T01790111  RH  064%=      5-min Rain = 0
KAI1 190124Z 27015KT 18/11 A2973 RMK A01 T01780112  RH  065%=      5-min Rain = 0
KAI1 190125Z 27015KT 18/11 A2973 RMK A01 T01770113  RH  066%=      5-min Rain = 0
KAI1 190126Z 27014KT 18/11 A2973 RMK A01 T01760114  RH  067%=      5-min Rain = 0
KAI1 190127Z 27012G17KT 17/12 A2973 RMK A01 T01740115  RH  068%=      5-min Rain = 0
KAI1 190128Z 28014KT 17/11 A2973 RMK A01 T01730114  RH  068%=      5-min Rain = 0
KAI1 190129Z 27013KT 17/11 A2973 RMK A01 T01730113  RH  068%=      5-min Rain = 0
KAI1 190130Z 28015KT 17/11 A2973 RMK A01 T01730111  RH  067%=      5-min Rain = 0
KAI1 190131Z 28012KT 18/11 A2973 RMK A01 T01760111  RH  066%=      5-min Rain = 0
KAI1 190132Z 28012KT 18/11 A2972 RMK A01 T01760113  RH  066%=      5-min Rain = 0
KAI1 190133Z 28013KT 18/11 A2972 RMK A01 T01750111  RH  066%=      5-min Rain = 0
KAI1 190134Z 29012KT 18/11 A2972 RMK A01 T01750111  RH  066%=      5-min Rain = 0
KAI1 190135Z 29014KT 18/11 A2972 RMK A01 T01750111  RH  066%=      5-min Rain = 0
KAI1 190136Z 29013KT 18/11 A2972 RMK A01 T01750109  RH  065%=      5-min Rain = 0
KAI1 190137Z 29014KT 18/11 A2972 RMK A01 T01750109  RH  065%=      5-min Rain = 0
KAI1 190138Z 29013KT 18/11 A2972 RMK A01 T01760110  RH  065%=      5-min Rain = 0
KAI1 190139Z 29013KT 18/11 A2972 RMK A01 T01750110  RH  066%=      5-min Rain = 0
KAI1 190140Z 29014KT 17/11 A2972 RMK A01 T01740109  RH  065%=      5-min Rain = 0
KAI1 190141Z 29014KT 18/11 A2972 RMK A01 T01750106  RH  064%=      5-min Rain = 0
KAI1 190142Z 29016G21KT 18/11 A2972 RMK A01 T01760106  RH  063%=      5-min Rain = 0
KAI1 190143Z 30016KT 18/10 A2972 RMK A01 T01790104  RH  062%=      5-min Rain = 0
KAI1 190144Z 30015KT 18/11 A2972 RMK A01 T01800105  RH  062%=      5-min Rain = 0
KAI1 190145Z 30014KT 18/11 A2972 RMK A01 T01790106  RH  062%=      5-min Rain = 0
KAI1 190146Z 30015KT 18/11 A2972 RMK A01 T01780105  RH  062%=      5-min Rain = 0
KAI1 190147Z 30014KT 18/10 A2972 RMK A01 T01790104  RH  062%=      5-min Rain = 0
KAI1 190148Z 30014KT 18/10 A2972 RMK A01 T01790104  RH  061%=      5-min Rain = 0.01
KAI1 190149Z 30014KT 18/11 A2972 RMK A01 T01790105  RH  062%=      5-min Rain = 0
KAI1 190150Z 30013KT 18/10 A2972 RMK A01 T01790103  RH  061%=      5-min Rain = 0
KAI1 190151Z 31011KT 18/10 A2972 RMK A01 T01780104  RH  062%=      5-min Rain = 0
KAI1 190152Z 31013KT 18/10 A2972 RMK A01 T01770104  RH  062%=      5-min Rain = 0
KAI1 190153Z 30014KT 18/10 A2972 RMK A01 T01760103  RH  062%=      5-min Rain = 0
KAI1 190154Z 31013KT 18/10 A2972 RMK A01 T01760104  RH  062%=      5-min Rain = 0
KAI1 190155Z 30013KT 18/11 A2972 RMK A01 T01760105  RH  063%=      5-min Rain = 0
KAI1 190156Z 30013KT 18/11 A2972 RMK A01 T01760105  RH  063%=      5-min Rain = 0
KAI1 190157Z 30012KT 18/10 A2972 RMK A01 T01750104  RH  063%=      5-min Rain = 0
KAI1 190158Z 30011KT 18/11 A2972 RMK A01 T01750105  RH  063%=      5-min Rain = 0
KAI1 190159Z 30010KT 17/11 A2972 RMK A01 T01740105  RH  064%=      5-min Rain = 0
KAI1 190200Z 30011KT 17/11 A2972 RMK A01 T01730106  RH  065%=      5-min Rain = 0
KAI1 190201Z 30009KT 17/10 A2972 RMK A01 T01710104  RH  065%=      5-min Rain = 0
KAI1 190202Z 30009KT 17/11 A2972 RMK A01 T01710105  RH  065%=      5-min Rain = 0
KAI1 190203Z 30009KT 17/11 A2972 RMK A01 T01700105  RH  066%=      5-min Rain = 0
KAI1 190204Z 30009KT 17/11 A2972 RMK A01 T01690106  RH  066%=      5-min Rain = 0
KAI1 190205Z 30008KT 17/11 A2972 RMK A01 T01680105  RH  067%=      5-min Rain = 0
KAI1 190206Z 30008KT 17/11 A2972 RMK A01 T01670105  RH  067%=      5-min Rain = 0
KAI1 190207Z 30008KT 17/11 A2972 RMK A01 T01660105  RH  067%=      5-min Rain = 0
KAI1 190208Z 30008KT 17/11 A2972 RMK A01 T01650105  RH  068%=      5-min Rain = 0
KAI1 190209Z 30007KT 16/11 A2972 RMK A01 T01640105  RH  068%=      5-min Rain = 0
KAI1 190210Z 30008KT 16/11 A2972 RMK A01 T01630105  RH  069%=      5-min Rain = 0
KAI1 190211Z 30008KT 16/11 A2972 RMK A01 T01620105  RH  069%=      5-min Rain = 0
KAI1 190212Z 31008KT 16/11 A2971 RMK A01 T01610105  RH  069%=      5-min Rain = 0
KAI1 190213Z 31008KT 16/11 A2971 RMK A01 T01600105  RH  070%=      5-min Rain = 0
KAI1 190214Z 31007KT 16/11 A2971 RMK A01 T01590105  RH  070%=      5-min Rain = 0
KAI1 190215Z 32008KT 16/11 A2971 RMK A01 T01580105  RH  071%=      5-min Rain = 0
KAI1 190216Z 32007KT 16/10 A2971 RMK A01 T01570104  RH  071%=      5-min Rain = 0
KAI1 190217Z 31007KT 16/11 A2971 RMK A01 T01550105  RH  072%=      5-min Rain = 0
KAI1 190218Z 31007KT 15/11 A2971 RMK A01 T01540105  RH  072%=      5-min Rain = 0
KAI1 190219Z 31007KT 15/11 A2971 RMK A01 T01530105  RH  073%=      5-min Rain = 0
KAI1 190220Z 31007KT 15/10 A2971 RMK A01 T01520104  RH  073%=      5-min Rain = 0
KAI1 190221Z 30007KT 15/10 A2971 RMK A01 T01510104  RH  074%=      5-min Rain = 0
KAI1 190222Z 30007KT 15/10 A2971 RMK A01 T01500104  RH  074%=      5-min Rain = 0
KAI1 190223Z 30006KT 15/10 A2971 RMK A01 T01500103  RH  073%=      5-min Rain = 0
KAI1 190224Z 30006KT 15/10 A2972 RMK A01 T01490103  RH  073%=      5-min Rain = 0
KAI1 190225Z 29007KT 15/10 A2972 RMK A01 T01490102  RH  073%=      5-min Rain = 0
KAI1 190226Z 29007KT 15/10 A2972 RMK A01 T01490101  RH  073%=      5-min Rain = 0
KAI1 190227Z 29007KT 15/10 A2972 RMK A01 T01490102  RH  073%=      5-min Rain = 0
KAI1 190228Z 30006KT 15/10 A2972 RMK A01 T01480101  RH  073%=      5-min Rain = 0
KAI1 190229Z 30007KT 15/10 A2972 RMK A01 T01480101  RH  073%=      5-min Rain = 0
KAI1 190230Z 30007KT 15/10 A2972 RMK A01 T01480100  RH  073%=      5-min Rain = 0
KAI1 190231Z 29007KT 15/10 A2972 RMK A01 T01480100  RH  073%=      5-min Rain = 0
KAI1 190232Z 29007KT 15/10 A2972 RMK A01 T01480100  RH  073%=      5-min Rain = 0
KAI1 190233Z 29007KT 15/10 A2972 RMK A01 T01470099  RH  073%=      5-min Rain = 0
KAI1 190234Z 29007KT 15/10 A2972 RMK A01 T01470099  RH  073%=      5-min Rain = 0
KAI1 190235Z 28006KT 15/10 A2972 RMK A01 T01470099  RH  073%=      5-min Rain = 0
KAI1 190236Z 28006KT 15/10 A2972 RMK A01 T01460099  RH  073%=      5-min Rain = 0
KAI1 190237Z 28006KT 14/10 A2972 RMK A01 T01440098  RH  074%=      5-min Rain = 0
KAI1 190238Z 28007KT 14/10 A2972 RMK A01 T01430098  RH  074%=      5-min Rain = 0
KAI1 190239Z 28007KT 14/10 A2972 RMK A01 T01420098  RH  075%=      5-min Rain = 0
KAI1 190240Z 28007KT 14/10 A2972 RMK A01 T01420098  RH  075%=      5-min Rain = 0
KAI1 190241Z 28007KT 14/10 A2972 RMK A01 T01420098  RH  075%=      5-min Rain = 0
KAI1 190242Z 29008KT 14/10 A2972 RMK A01 T01430098  RH  074%=      5-min Rain = 0
KAI1 190243Z 28008KT 14/10 A2972 RMK A01 T01430099  RH  074%=      5-min Rain = 0
KAI1 190244Z 28008KT 14/10 A2972 RMK A01 T01440099  RH  074%=      5-min Rain = 0
KAI1 190245Z 28008KT 14/10 A2972 RMK A01 T01430099  RH  074%=      5-min Rain = 0
KAI1 190246Z 27008KT 14/10 A2972 RMK A01 T01420098  RH  075%=      5-min Rain = 0
KAI1 190247Z 27008KT 14/10 A2972 RMK A01 T01400098  RH  076%=      5-min Rain = 0
KAI1 190248Z 27008KT 14/10 A2972 RMK A01 T01390098  RH  076%=      5-min Rain = 0
KAI1 190249Z 28009KT 14/10 A2972 RMK A01 T01380098  RH  076%=      5-min Rain = 0
KAI1 190250Z 28008KT 14/10 A2972 RMK A01 T01380098  RH  076%=      5-min Rain = 0
KAI1 190251Z 28008KT 14/10 A2972 RMK A01 T01400098  RH  076%=      5-min Rain = 0
KAI1 190252Z 28008KT 14/10 A2973 RMK A01 T01410099  RH  076%=      5-min Rain = 0
KAI1 190253Z 27007KT 14/10 A2973 RMK A01 T01410099  RH  075%=      5-min Rain = 0
KAI1 190254Z 27007KT 14/10 A2973 RMK A01 T01410099  RH  076%=      5-min Rain = 0
KAI1 190255Z 28007KT 14/10 A2973 RMK A01 T01400099  RH  076%=      5-min Rain = 0
KAI1 190256Z 27007KT 14/10 A2973 RMK A01 T01400099  RH  076%=      5-min Rain = 0
KAI1 190257Z 27007KT 14/10 A2973 RMK A01 T01400099  RH  076%=      5-min Rain = 0
KAI1 190258Z 27007KT 14/10 A2973 RMK A01 T01400099  RH  076%=      5-min Rain = 0
KAI1 190259Z 27007KT 14/10 A2973 RMK A01 T01400099  RH  076%=      5-min Rain = 0
KAI1 190300Z 26007KT 14/10 A2973 RMK A01 T01390098  RH  076%=      5-min Rain = 0
KAI1 190301Z 26007KT 14/10 A2973 RMK A01 T01380099  RH  077%=      5-min Rain = 0
KAI1 190302Z 26007KT 14/10 A2973 RMK A01 T01370098  RH  077%=      5-min Rain = 0
KAI1 190303Z 25007KT 14/10 A2973 RMK A01 T01360098  RH  078%=      5-min Rain = 0
KAI1 190304Z 25007KT 14/10 A2973 RMK A01 T01350098  RH  078%=      5-min Rain = 0
KAI1 190305Z 25007KT 13/10 A2973 RMK A01 T01340098  RH  079%=      5-min Rain = 0
KAI1 190306Z 25007KT 13/10 A2974 RMK A01 T01340099  RH  079%=      5-min Rain = 0
KAI1 190307Z 25008KT 13/10 A2974 RMK A01 T01330098  RH  079%=      5-min Rain = 0
KAI1 190308Z 25007KT 13/10 A2974 RMK A01 T01330099  RH  080%=      5-min Rain = 0
KAI1 190309Z 25007KT 13/10 A2974 RMK A01 T01330099  RH  080%=      5-min Rain = 0
KAI1 190310Z 25007KT 13/10 A2974 RMK A01 T01330100  RH  080%=      5-min Rain = 0
KAI1 190311Z 25007KT 13/10 A2974 RMK A01 T01330100  RH  080%=      5-min Rain = 0
KAI1 190312Z 24007KT 13/10 A2974 RMK A01 T01330100  RH  080%=      5-min Rain = 0
KAI1 190313Z 24006KT 13/10 A2974 RMK A01 T01330100  RH  081%=      5-min Rain = 0
KAI1 190314Z 23006KT 13/10 A2974 RMK A01 T01320100  RH  081%=      5-min Rain = 0
KAI1 190315Z 23006KT 13/10 A2974 RMK A01 T01320100  RH  081%=      5-min Rain = 0
KAI1 190316Z 22006KT 13/10 A2974 RMK A01 T01310101  RH  082%=      5-min Rain = 0
KAI1 190317Z 21007KT 13/10 A2974 RMK A01 T01310101  RH  082%=      5-min Rain = 0
KAI1 190318Z 20008KT 13/10 A2975 RMK A01 T01310102  RH  082%=      5-min Rain = 0
KAI1 190319Z 19009KT 13/10 A2975 RMK A01 T01310102  RH  083%=      5-min Rain = 0
KAI1 190320Z 20008KT 13/10 A2975 RMK A01 T01310103  RH  083%=      5-min Rain = 0
KAI1 190321Z 20008KT 13/10 A2975 RMK A01 T01310104  RH  084%=      5-min Rain = 0
KAI1 190322Z 19009KT 13/10 A2975 RMK A01 T01320104  RH  083%=      5-min Rain = 0
KAI1 190323Z 20010KT 13/10 A2975 RMK A01 T01320104  RH  083%=      5-min Rain = 0
KAI1 190324Z 20009KT 13/10 A2975 RMK A01 T01340104  RH  082%=      5-min Rain = 0
KAI1 190325Z 20009KT 13/10 A2975 RMK A01 T01340104  RH  082%=      5-min Rain = 0
KAI1 190326Z 21007KT 13/10 A2975 RMK A01 T01340104  RH  082%=      5-min Rain = 0
KAI1 190327Z 21006KT 13/10 A2975 RMK A01 T01340104  RH  082%=      5-min Rain = 0
KAI1 190328Z 21005KT 13/10 A2975 RMK A01 T01330103  RH  082%=      5-min Rain = 0
KAI1 190329Z 22005KT 13/10 A2974 RMK A01 T01330103  RH  082%=      5-min Rain = 0
KAI1 190330Z 22004KT 13/10 A2974 RMK A01 T01320103  RH  082%=      5-min Rain = 0
KAI1 190331Z 21004KT 13/10 A2974 RMK A01 T01320103  RH  083%=      5-min Rain = 0
KAI1 190332Z 21004KT 13/10 A2974 RMK A01 T01310103  RH  083%=      5-min Rain = 0
KAI1 190333Z 21004KT 13/10 A2974 RMK A01 T01310103  RH  083%=      5-min Rain = 0
KAI1 190334Z 20004KT 13/10 A2974 RMK A01 T01300102  RH  083%=      5-min Rain = 0
KAI1 190335Z 20004KT 13/10 A2974 RMK A01 T01300102  RH  083%=      5-min Rain = 0
KAI1 190336Z 20004KT 13/10 A2974 RMK A01 T01300102  RH  083%=      5-min Rain = 0
KAI1 190337Z 20005KT 13/10 A2974 RMK A01 T01300103  RH  084%=      5-min Rain = 0
KAI1 190338Z 20005KT 13/10 A2974 RMK A01 T01300103  RH  084%=      5-min Rain = 0
KAI1 190339Z 20005KT 13/10 A2975 RMK A01 T01300103  RH  084%=      5-min Rain = 0
KAI1 190340Z 20006KT 13/10 A2975 RMK A01 T01300103  RH  084%=      5-min Rain = 0
KAI1 190341Z 20005KT 13/10 A2975 RMK A01 T01300103  RH  084%=      5-min Rain = 0
KAI1 190342Z 20005KT 13/10 A2975 RMK A01 T01300103  RH  084%=      5-min Rain = 0
KAI1 190343Z 19005KT 13/10 A2975 RMK A01 T01290103  RH  084%=      5-min Rain = 0
KAI1 190344Z 20005KT 13/10 A2975 RMK A01 T01290103  RH  084%=      5-min Rain = 0
KAI1 190345Z 20006KT 13/10 A2975 RMK A01 T01290103  RH  084%=      5-min Rain = 0
KAI1 190346Z 20006KT 13/10 A2975 RMK A01 T01290103  RH  084%=      5-min Rain = 0
KAI1 190347Z 20006KT 13/10 A2975 RMK A01 T01280102  RH  084%=      5-min Rain = 0
KAI1 190348Z 19006KT 13/10 A2975 RMK A01 T01280102  RH  084%=      5-min Rain = 0
KAI1 190349Z 19007KT 13/10 A2975 RMK A01 T01280102  RH  084%=      5-min Rain = 0
KAI1 190350Z 20006KT 13/10 A2975 RMK A01 T01280101  RH  084%=      5-min Rain = 0
KAI1 190351Z 21006KT 13/10 A2975 RMK A01 T01290102  RH  083%=      5-min Rain = 0
KAI1 190352Z 21006KT 13/10 A2975 RMK A01 T01290100  RH  083%=      5-min Rain = 0
KAI1 190353Z 22006KT 13/10 A2975 RMK A01 T01280100  RH  083%=      5-min Rain = 0
KAI1 190354Z 23006KT 13/10 A2975 RMK A01 T01270099  RH  083%=      5-min Rain = 0
KAI1 190355Z 23006KT 13/10 A2975 RMK A01 T01250099  RH  084%=      5-min Rain = 0
KAI1 190356Z 22006KT 12/10 A2975 RMK A01 T01230098  RH  084%=      5-min Rain = 0
KAI1 190357Z 22007KT 12/10 A2975 RMK A01 T01220097  RH  085%=      5-min Rain = 0
KAI1 190358Z 22007KT 12/10 A2975 RMK A01 T01200096  RH  085%=      5-min Rain = 0
KAI1 190359Z 22006KT 12/10 A2975 RMK A01 T01190095  RH  085%=      5-min Rain = 0
KAI1 190400Z 22006KT 12/10 A2975 RMK A01 T01180095  RH  086%=      5-min Rain = 0
KAI1 190401Z 22006KT 12/10 A2975 RMK A01 T01180095  RH  086%=      5-min Rain = 0
KAI1 190402Z 22006KT 12/09 A2975 RMK A01 T01180094  RH  085%=      5-min Rain = 0
KAI1 190403Z 22006KT 12/09 A2975 RMK A01 T01180094  RH  085%=      5-min Rain = 0
KAI1 190404Z 22006KT 12/09 A2975 RMK A01 T01190093  RH  085%=      5-min Rain = 0
KAI1 190405Z 22005KT 12/09 A2975 RMK A01 T01190094  RH  084%=      5-min Rain = 0
KAI1 190406Z 22006KT 12/09 A2975 RMK A01 T01190094  RH  084%=      5-min Rain = 0
KAI1 190407Z 22006KT 12/09 A2975 RMK A01 T01200094  RH  084%=      5-min Rain = 0
KAI1 190408Z 22007KT 12/09 A2975 RMK A01 T01200094  RH  084%=      5-min Rain = 0
KAI1 190409Z 22007KT 12/09 A2975 RMK A01 T01200093  RH  084%=      5-min Rain = 0
KAI1 190410Z 22007KT 12/09 A2975 RMK A01 T01190093  RH  084%=      5-min Rain = 0
KAI1 190411Z 22007KT 12/09 A2976 RMK A01 T01190093  RH  084%=      5-min Rain = 0
KAI1 190412Z 23007KT 12/09 A2976 RMK A01 T01180092  RH  084%=      5-min Rain = 0
KAI1 190413Z 23007KT 12/09 A2976 RMK A01 T01170092  RH  084%=      5-min Rain = 0
KAI1 190414Z 23007KT 12/09 A2976 RMK A01 T01170091  RH  084%=      5-min Rain = 0
KAI1 190415Z 23007KT 12/09 A2976 RMK A01 T01160091  RH  085%=      5-min Rain = 0
KAI1 190416Z 23007KT 12/09 A2976 RMK A01 T01150091  RH  085%=      5-min Rain = 0
KAI1 190417Z 23007KT 12/09 A2976 RMK A01 T01150091  RH  085%=      5-min Rain = 0
KAI1 190418Z 23006KT 11/09 A2976 RMK A01 T01140091  RH  086%=      5-min Rain = 0
KAI1 190419Z 23006KT 11/09 A2976 RMK A01 T01130091  RH  086%=      5-min Rain = 0
KAI1 190420Z 23006KT 11/09 A2976 RMK A01 T01130091  RH  086%=      5-min Rain = 0
KAI1 190421Z 23006KT 11/09 A2976 RMK A01 T01140091  RH  086%=      5-min Rain = 0
KAI1 190422Z 23006KT 11/09 A2976 RMK A01 T01130091  RH  086%=      5-min Rain = 0
KAI1 190423Z 24005KT 11/09 A2976 RMK A01 T01130091  RH  086%=      5-min Rain = 0
KAI1 190424Z 23005KT 11/09 A2976 RMK A01 T01130091  RH  086%=      5-min Rain = 0
KAI1 190425Z 23006KT 11/09 A2975 RMK A01 T01130091  RH  086%=      5-min Rain = 0
KAI1 190426Z 23006KT 11/09 A2976 RMK A01 T01120090  RH  086%=      5-min Rain = 0
KAI1 190427Z 23006KT 11/09 A2976 RMK A01 T01120091  RH  086%=      5-min Rain = 0
KAI1 190428Z 23007KT 11/09 A2976 RMK A01 T01120090  RH  086%=      5-min Rain = 0
KAI1 190429Z 23007KT 11/09 A2976 RMK A01 T01120090  RH  086%=      5-min Rain = 0
KAI1 190430Z 23007KT 11/09 A2976 RMK A01 T01110089  RH  086%=      5-min Rain = 0
KAI1 190431Z 23008KT 11/09 A2976 RMK A01 T01110089  RH  086%=      5-min Rain = 0
KAI1 190432Z 23008KT 11/09 A2976 RMK A01 T01090088  RH  087%=      5-min Rain = 0
KAI1 190433Z 23007KT 11/09 A2976 RMK A01 T01080088  RH  087%=      5-min Rain = 0
KAI1 190434Z 23007KT 11/09 A2976 RMK A01 T01080088  RH  087%=      5-min Rain = 0
KAI1 190435Z 23007KT 11/09 A2976 RMK A01 T01070088  RH  088%=      5-min Rain = 0
KAI1 190436Z 24007KT 11/09 A2976 RMK A01 T01080088  RH  088%=      5-min Rain = 0
KAI1 190437Z 23007KT 11/09 A2976 RMK A01 T01080088  RH  088%=      5-min Rain = 0
KAI1 190438Z 23006KT 11/09 A2976 RMK A01 T01080089  RH  088%=      5-min Rain = 0
KAI1 190439Z 23006KT 11/09 A2976 RMK A01 T01080088  RH  087%=      5-min Rain = 0
KAI1 190440Z 24006KT 11/09 A2976 RMK A01 T01080088  RH  087%=      5-min Rain = 0
KAI1 190441Z 24006KT 11/09 A2976 RMK A01 T01080088  RH  087%=      5-min Rain = 0
KAI1 190442Z 24006KT 11/09 A2976 RMK A01 T01080088  RH  087%=      5-min Rain = 0
KAI1 190443Z 24006KT 11/09 A2976 RMK A01 T01080088  RH  087%=      5-min Rain = 0
KAI1 190444Z 24006KT 11/09 A2976 RMK A01 T01080088  RH  087%=      5-min Rain = 0
KAI1 190445Z 24006KT 11/09 A2976 RMK A01 T01080088  RH  087%=      5-min Rain = 0
KAI1 190446Z 23006KT 11/09 A2976 RMK A01 T01080087  RH  087%=      5-min Rain = 0
KAI1 190447Z 24005KT 11/09 A2976 RMK A01 T01080087  RH  087%=      5-min Rain = 0
KAI1 190448Z 24005KT 11/09 A2976 RMK A01 T01070087  RH  087%=      5-min Rain = 0
KAI1 190449Z 24005KT 11/09 A2976 RMK A01 T01070086  RH  087%=      5-min Rain = 0
KAI1 190450Z 24005KT 11/09 A2976 RMK A01 T01080086  RH  086%=      5-min Rain = 0
KAI1 190451Z 24005KT 11/09 A2976 RMK A01 T01080086  RH  086%=      5-min Rain = 0
KAI1 190452Z 24006KT 11/09 A2976 RMK A01 T01080085  RH  086%=      5-min Rain = 0
KAI1 190453Z 24006KT 11/09 A2976 RMK A01 T01080085  RH  086%=      5-min Rain = 0
KAI1 190454Z 24006KT 11/09 A2976 RMK A01 T01090085  RH  085%=      5-min Rain = 0
KAI1 190455Z 24006KT 11/09 A2976 RMK A01 T01100085  RH  085%=      5-min Rain = 0
KAI1 190456Z 24006KT 11/09 A2976 RMK A01 T01100085  RH  084%=      5-min Rain = 0
KAI1 190457Z 24006KT 11/08 A2976 RMK A01 T01100084  RH  084%=      5-min Rain = 0
KAI1 190458Z 24006KT 11/08 A2976 RMK A01 T01100084  RH  084%=      5-min Rain = 0
KAI1 190459Z 25007KT 11/08 A2976 RMK A01 T01100083  RH  083%=      5-min Rain = 0

Page generated in 0.131 seconds.